Observation data for Odell on 03/13/2018      Previous  Date  Next       Current Mesonet Observations  Soil Data  Daily Summary Page  Observations in Plain Language
KOD1 130501Z 12008KT 07/M04 A3028 RMK A01 T00701038  RH  046%=      5-min Rain = 0
KOD1 130502Z 11008KT 07/M04 A3028 RMK A01 T00701038  RH  046%=      5-min Rain = 0
KOD1 130503Z 11008KT 07/M04 A3028 RMK A01 T00701038  RH  046%=      5-min Rain = 0
KOD1 130504Z 11008KT 07/M04 A3028 RMK A01 T00701038  RH  046%=      5-min Rain = 0
KOD1 130505Z 12009KT 07/M04 A3028 RMK A01 T00701038  RH  046%=      5-min Rain = 0
KOD1 130506Z 11008KT 07/M04 A3028 RMK A01 T00711039  RH  046%=      5-min Rain = 0
KOD1 130507Z 11009KT 07/M04 A3028 RMK A01 T00711039  RH  045%=      5-min Rain = 0
KOD1 130508Z 11010KT 07/M04 A3028 RMK A01 T00731040  RH  044%=      5-min Rain = 0
KOD1 130509Z 11009KT 08/M04 A3028 RMK A01 T00751041  RH  044%=      5-min Rain = 0
KOD1 130510Z 11009KT 08/M04 A3028 RMK A01 T00761042  RH  043%=      5-min Rain = 0
KOD1 130511Z 11008KT 08/M04 A3028 RMK A01 T00771041  RH  043%=      5-min Rain = 0
KOD1 130512Z 12008KT 08/M04 A3028 RMK A01 T00761041  RH  043%=      5-min Rain = 0
KOD1 130513Z 11009KT 08/M04 A3028 RMK A01 T00751040  RH  044%=      5-min Rain = 0
KOD1 130514Z 11009KT 07/M04 A3028 RMK A01 T00741040  RH  044%=      5-min Rain = 0
KOD1 130515Z 11009KT 07/M04 A3028 RMK A01 T00741040  RH  044%=      5-min Rain = 0
KOD1 130516Z 11009KT 07/M04 A3028 RMK A01 T00741040  RH  044%=      5-min Rain = 0
KOD1 130517Z 11009KT 07/M04 A3028 RMK A01 T00731040  RH  045%=      5-min Rain = 0
KOD1 130518Z 11008KT 07/M04 A3028 RMK A01 T00731040  RH  044%=      5-min Rain = 0
KOD1 130519Z 11008KT 07/M04 A3028 RMK A01 T00731040  RH  044%=      5-min Rain = 0
KOD1 130520Z 11008KT 07/M04 A3028 RMK A01 T00731040  RH  044%=      5-min Rain = 0
KOD1 130521Z 11009KT 07/M04 A3028 RMK A01 T00731041  RH  044%=      5-min Rain = 0
KOD1 130522Z 11008KT 07/M04 A3028 RMK A01 T00731041  RH  044%=      5-min Rain = 0
KOD1 130523Z 11008KT 07/M04 A3028 RMK A01 T00731041  RH  044%=      5-min Rain = 0
KOD1 130524Z 11008KT 07/M04 A3028 RMK A01 T00721041  RH  045%=      5-min Rain = 0
KOD1 130525Z 11008KT 07/M04 A3029 RMK A01 T00721040  RH  045%=      5-min Rain = 0
KOD1 130526Z 11008KT 07/M04 A3029 RMK A01 T00711040  RH  045%=      5-min Rain = 0
KOD1 130527Z 11008KT 07/M04 A3029 RMK A01 T00701040  RH  045%=      5-min Rain = 0
KOD1 130528Z 11008KT 07/M04 A3029 RMK A01 T00701040  RH  045%=      5-min Rain = 0
KOD1 130529Z 11008KT 07/M04 A3029 RMK A01 T00701040  RH  046%=      5-min Rain = 0
KOD1 130530Z 11008KT 07/M04 A3029 RMK A01 T00691039  RH  046%=      5-min Rain = 0
KOD1 130531Z 11008KT 07/M04 A3029 RMK A01 T00691039  RH  046%=      5-min Rain = 0
KOD1 130532Z 10008KT 07/M04 A3029 RMK A01 T00681039  RH  046%=      5-min Rain = 0
KOD1 130533Z 10008KT 07/M04 A3029 RMK A01 T00681039  RH  046%=      5-min Rain = 0
KOD1 130534Z 10008KT 07/M04 A3029 RMK A01 T00681039  RH  047%=      5-min Rain = 0
KOD1 130535Z 11008KT 07/M04 A3029 RMK A01 T00681039  RH  046%=      5-min Rain = 0
KOD1 130536Z 11008KT 07/M04 A3029 RMK A01 T00681039  RH  046%=      5-min Rain = 0
KOD1 130537Z 11008KT 07/M04 A3029 RMK A01 T00681039  RH  046%=      5-min Rain = 0
KOD1 130538Z 11008KT 07/M04 A3029 RMK A01 T00671039  RH  046%=      5-min Rain = 0
KOD1 130539Z 11008KT 07/M04 A3028 RMK A01 T00671040  RH  046%=      5-min Rain = 0
KOD1 130540Z 11008KT 07/M04 A3028 RMK A01 T00671040  RH  047%=      5-min Rain = 0
KOD1 130541Z 11008KT 07/M04 A3028 RMK A01 T00661040  RH  047%=      5-min Rain = 0
KOD1 130542Z 11008KT 07/M04 A3028 RMK A01 T00661040  RH  047%=      5-min Rain = 0
KOD1 130543Z 11008KT 07/M04 A3028 RMK A01 T00661040  RH  047%=      5-min Rain = 0
KOD1 130544Z 11007KT 07/M04 A3028 RMK A01 T00651040  RH  047%=      5-min Rain = 0
KOD1 130545Z 11007KT 07/M04 A3028 RMK A01 T00651040  RH  047%=      5-min Rain = 0
KOD1 130546Z 11007KT 07/M04 A3028 RMK A01 T00651040  RH  047%=      5-min Rain = 0
KOD1 130547Z 11007KT 06/M04 A3028 RMK A01 T00641040  RH  047%=      5-min Rain = 0
KOD1 130548Z 11007KT 06/M04 A3028 RMK A01 T00641040  RH  048%=      5-min Rain = 0
KOD1 130549Z 11007KT 06/M04 A3028 RMK A01 T00631040  RH  048%=      5-min Rain = 0
KOD1 130550Z 12007KT 06/M04 A3028 RMK A01 T00631041  RH  047%=      5-min Rain = 0
KOD1 130551Z 12007KT 06/M04 A3028 RMK A01 T00631041  RH  047%=      5-min Rain = 0
KOD1 130552Z 12007KT 06/M04 A3028 RMK A01 T00631041  RH  047%=      5-min Rain = 0
KOD1 130553Z 12008KT 06/M04 A3028 RMK A01 T00641041  RH  047%=      5-min Rain = 0
KOD1 130554Z 11008KT 06/M04 A3028 RMK A01 T00641041  RH  047%=      5-min Rain = 0
KOD1 130555Z 11008KT 07/M04 A3028 RMK A01 T00651042  RH  046%=      5-min Rain = 0
KOD1 130556Z 11008KT 07/M04 A3028 RMK A01 T00661042  RH  046%=      5-min Rain = 0
KOD1 130557Z 11008KT 07/M04 A3028 RMK A01 T00671041  RH  046%=      5-min Rain = 0
KOD1 130558Z 11008KT 07/M04 A3028 RMK A01 T00661041  RH  046%=      5-min Rain = 0
KOD1 130559Z 11008KT 07/M04 A3028 RMK A01 T00651041  RH  047%=      5-min Rain = 0
KOD1 130600Z 11008KT 07/M04 A3028 RMK A01 T00651041  RH  047%=      5-min Rain = 0
KOD1 130601Z 11008KT 07/M04 A3028 RMK A01 T00651042  RH  047%=      5-min Rain = 0
KOD1 130602Z 11007KT 06/M04 A3028 RMK A01 T00641041  RH  047%=      5-min Rain = 0
KOD1 130603Z 11008KT 06/M04 A3029 RMK A01 T00641042  RH  047%=      5-min Rain = 0
KOD1 130604Z 11007KT 06/M04 A3029 RMK A01 T00641042  RH  047%=      5-min Rain = 0
KOD1 130605Z 11007KT 06/M04 A3029 RMK A01 T00641042  RH  047%=      5-min Rain = 0
KOD1 130606Z 11007KT 06/M04 A3029 RMK A01 T00631042  RH  047%=      5-min Rain = 0
KOD1 130607Z 11007KT 06/M04 A3029 RMK A01 T00631042  RH  047%=      5-min Rain = 0
KOD1 130608Z 11007KT 06/M04 A3029 RMK A01 T00621042  RH  047%=      5-min Rain = 0
KOD1 130609Z 11007KT 06/M04 A3029 RMK A01 T00621042  RH  047%=      5-min Rain = 0
KOD1 130610Z 10007KT 06/M04 A3029 RMK A01 T00621041  RH  048%=      5-min Rain = 0
KOD1 130611Z 10007KT 06/M04 A3029 RMK A01 T00611041  RH  048%=      5-min Rain = 0
KOD1 130612Z 10007KT 06/M04 A3029 RMK A01 T00611041  RH  048%=      5-min Rain = 0
KOD1 130613Z 10007KT 06/M04 A3029 RMK A01 T00601041  RH  048%=      5-min Rain = 0
KOD1 130614Z 10007KT 06/M04 A3029 RMK A01 T00591041  RH  049%=      5-min Rain = 0
KOD1 130615Z 10007KT 06/M04 A3029 RMK A01 T00591041  RH  049%=      5-min Rain = 0
KOD1 130616Z 10007KT 06/M04 A3029 RMK A01 T00591041  RH  049%=      5-min Rain = 0
KOD1 130617Z 10007KT 06/M04 A3029 RMK A01 T00581041  RH  049%=      5-min Rain = 0
KOD1 130618Z 10007KT 06/M04 A3029 RMK A01 T00581041  RH  049%=      5-min Rain = 0
KOD1 130619Z 10006KT 06/M04 A3029 RMK A01 T00571041  RH  049%=      5-min Rain = 0
KOD1 130620Z 09007KT 06/M04 A3029 RMK A01 T00571041  RH  049%=      5-min Rain = 0
KOD1 130621Z 09007KT 06/M04 A3029 RMK A01 T00571042  RH  049%=      5-min Rain = 0
KOD1 130622Z 09008KT 06/M04 A3029 RMK A01 T00571043  RH  048%=      5-min Rain = 0
KOD1 130623Z 09007KT 06/M04 A3029 RMK A01 T00581043  RH  048%=      5-min Rain = 0
KOD1 130624Z 09007KT 06/M04 A3029 RMK A01 T00571042  RH  049%=      5-min Rain = 0
KOD1 130625Z 09007KT 06/M04 A3029 RMK A01 T00571042  RH  049%=      5-min Rain = 0
KOD1 130626Z 09007KT 06/M04 A3029 RMK A01 T00571042  RH  049%=      5-min Rain = 0
KOD1 130627Z 09007KT 06/M04 A3029 RMK A01 T00571042  RH  049%=      5-min Rain = 0
KOD1 130628Z 09007KT 06/M04 A3029 RMK A01 T00561042  RH  049%=      5-min Rain = 0
KOD1 130629Z 09008KT 06/M04 A3029 RMK A01 T00561043  RH  049%=      5-min Rain = 0
KOD1 130630Z 09008KT 06/M04 A3029 RMK A01 T00571043  RH  049%=      5-min Rain = 0
KOD1 130631Z 09008KT 06/M04 A3029 RMK A01 T00571043  RH  048%=      5-min Rain = 0
KOD1 130632Z 09008KT 06/M04 A3029 RMK A01 T00571044  RH  048%=      5-min Rain = 0
KOD1 130633Z 09007KT 06/M04 A3029 RMK A01 T00581044  RH  048%=      5-min Rain = 0
KOD1 130634Z 09008KT 06/M04 A3029 RMK A01 T00571043  RH  048%=      5-min Rain = 0
KOD1 130635Z 09008KT 06/M04 A3029 RMK A01 T00571043  RH  049%=      5-min Rain = 0
KOD1 130636Z 09008KT 06/M04 A3029 RMK A01 T00571043  RH  049%=      5-min Rain = 0
KOD1 130637Z 09008KT 06/M04 A3029 RMK A01 T00561043  RH  049%=      5-min Rain = 0
KOD1 130638Z 09008KT 06/M04 A3029 RMK A01 T00571044  RH  048%=      5-min Rain = 0
KOD1 130639Z 09008KT 06/M04 A3029 RMK A01 T00571044  RH  048%=      5-min Rain = 0
KOD1 130640Z 09008KT 06/M04 A3029 RMK A01 T00571044  RH  048%=      5-min Rain = 0
KOD1 130641Z 09008KT 06/M04 A3029 RMK A01 T00571044  RH  048%=      5-min Rain = 0
KOD1 130642Z 09008KT 06/M04 A3029 RMK A01 T00571044  RH  048%=      5-min Rain = 0
KOD1 130643Z 09008KT 06/M04 A3029 RMK A01 T00571044  RH  048%=      5-min Rain = 0
KOD1 130644Z 09008KT 06/M04 A3029 RMK A01 T00571044  RH  048%=      5-min Rain = 0
KOD1 130645Z 09008KT 06/M05 A3029 RMK A01 T00571045  RH  048%=      5-min Rain = 0
KOD1 130646Z 09008KT 06/M05 A3029 RMK A01 T00571045  RH  048%=      5-min Rain = 0
KOD1 130647Z 09008KT 06/M05 A3029 RMK A01 T00571045  RH  048%=      5-min Rain = 0
KOD1 130648Z 09008KT 06/M05 A3029 RMK A01 T00571045  RH  048%=      5-min Rain = 0
KOD1 130649Z 09008KT 06/M05 A3029 RMK A01 T00561045  RH  048%=      5-min Rain = 0
KOD1 130650Z 09008KT 06/M05 A3029 RMK A01 T00561045  RH  048%=      5-min Rain = 0
KOD1 130651Z 09009KT 06/M05 A3029 RMK A01 T00561045  RH  048%=      5-min Rain = 0
KOD1 130652Z 09008KT 06/M05 A3029 RMK A01 T00561045  RH  048%=      5-min Rain = 0
KOD1 130653Z 09008KT 06/M05 A3029 RMK A01 T00551045  RH  048%=      5-min Rain = 0
KOD1 130654Z 09008KT 06/M04 A3029 RMK A01 T00551044  RH  049%=      5-min Rain = 0
KOD1 130655Z 09008KT 06/M05 A3029 RMK A01 T00551045  RH  049%=      5-min Rain = 0
KOD1 130656Z 09007KT 05/M04 A3029 RMK A01 T00541044  RH  049%=      5-min Rain = 0
KOD1 130657Z 09007KT 05/M04 A3029 RMK A01 T00541044  RH  049%=      5-min Rain = 0
KOD1 130658Z 09008KT 05/M05 A3029 RMK A01 T00531045  RH  049%=      5-min Rain = 0
KOD1 130659Z 09008KT 05/M05 A3029 RMK A01 T00541045  RH  049%=      5-min Rain = 0
KOD1 130700Z 09008KT 05/M05 A3029 RMK A01 T00531045  RH  049%=      5-min Rain = 0
KOD1 130701Z 09007KT 05/M05 A3029 RMK A01 T00541045  RH  049%=      5-min Rain = 0
KOD1 130702Z 09007KT 05/M05 A3029 RMK A01 T00541045  RH  049%=      5-min Rain = 0
KOD1 130703Z 09007KT 05/M05 A3029 RMK A01 T00531045  RH  049%=      5-min Rain = 0
KOD1 130704Z 09008KT 05/M05 A3029 RMK A01 T00531045  RH  049%=      5-min Rain = 0
KOD1 130705Z 09007KT 05/M05 A3029 RMK A01 T00521045  RH  049%=      5-min Rain = 0
KOD1 130706Z 09007KT 05/M05 A3029 RMK A01 T00521045  RH  049%=      5-min Rain = 0
KOD1 130707Z 08007KT 05/M05 A3029 RMK A01 T00521045  RH  049%=      5-min Rain = 0
KOD1 130708Z 09007KT 05/M05 A3029 RMK A01 T00521045  RH  050%=      5-min Rain = 0
KOD1 130709Z 09007KT 05/M05 A3029 RMK A01 T00521045  RH  050%=      5-min Rain = 0
KOD1 130710Z 09007KT 05/M05 A3029 RMK A01 T00511045  RH  050%=      5-min Rain = 0
KOD1 130711Z 09007KT 05/M05 A3029 RMK A01 T00511045  RH  050%=      5-min Rain = 0
KOD1 130712Z 09007KT 05/M05 A3029 RMK A01 T00511045  RH  050%=      5-min Rain = 0
KOD1 130713Z 09007KT 05/M05 A3029 RMK A01 T00511045  RH  050%=      5-min Rain = 0
KOD1 130714Z 09007KT 05/M05 A3029 RMK A01 T00511045  RH  050%=      5-min Rain = 0
KOD1 130715Z 09007KT 05/M05 A3029 RMK A01 T00511045  RH  050%=      5-min Rain = 0
KOD1 130716Z 09007KT 05/M05 A3029 RMK A01 T00511045  RH  050%=      5-min Rain = 0
KOD1 130717Z 09006KT 05/M05 A3029 RMK A01 T00501045  RH  050%=      5-min Rain = 0
KOD1 130718Z 09006KT 05/M05 A3029 RMK A01 T00501045  RH  050%=      5-min Rain = 0
KOD1 130719Z 09007KT 05/M04 A3029 RMK A01 T00501044  RH  051%=      5-min Rain = 0
KOD1 130720Z 09007KT 05/M04 A3029 RMK A01 T00491044  RH  051%=      5-min Rain = 0
KOD1 130721Z 09007KT 05/M05 A3029 RMK A01 T00491045  RH  051%=      5-min Rain = 0
KOD1 130722Z 09006KT 05/M04 A3029 RMK A01 T00491044  RH  051%=      5-min Rain = 0
KOD1 130723Z 09007KT 05/M05 A3029 RMK A01 T00481045  RH  051%=      5-min Rain = 0
KOD1 130724Z 09007KT 05/M05 A3029 RMK A01 T00481045  RH  051%=      5-min Rain = 0
KOD1 130725Z 09007KT 05/M05 A3029 RMK A01 T00481045  RH  051%=      5-min Rain = 0
KOD1 130726Z 09007KT 05/M05 A3029 RMK A01 T00471045  RH  051%=      5-min Rain = 0
KOD1 130727Z 09007KT 05/M05 A3029 RMK A01 T00471045  RH  052%=      5-min Rain = 0
KOD1 130728Z 09007KT 05/M04 A3029 RMK A01 T00461044  RH  052%=      5-min Rain = 0
KOD1 130729Z 09007KT 05/M04 A3029 RMK A01 T00461044  RH  052%=      5-min Rain = 0
KOD1 130730Z 09007KT 05/M04 A3029 RMK A01 T00451044  RH  052%=      5-min Rain = 0
KOD1 130731Z 09007KT 05/M04 A3029 RMK A01 T00451044  RH  052%=      5-min Rain = 0
KOD1 130732Z 09007KT 04/M04 A3029 RMK A01 T00441044  RH  053%=      5-min Rain = 0
KOD1 130733Z 08007KT 04/M04 A3029 RMK A01 T00441044  RH  053%=      5-min Rain = 0
KOD1 130734Z 08007KT 04/M04 A3029 RMK A01 T00431044  RH  053%=      5-min Rain = 0
KOD1 130735Z 08006KT 04/M04 A3029 RMK A01 T00431044  RH  053%=      5-min Rain = 0
KOD1 130736Z 08007KT 04/M05 A3028 RMK A01 T00421045  RH  053%=      5-min Rain = 0
KOD1 130737Z 08007KT 04/M04 A3028 RMK A01 T00421044  RH  053%=      5-min Rain = 0
KOD1 130738Z 08007KT 04/M05 A3028 RMK A01 T00421045  RH  053%=      5-min Rain = 0
KOD1 130739Z 08007KT 04/M05 A3028 RMK A01 T00421045  RH  053%=      5-min Rain = 0
KOD1 130740Z 08007KT 04/M05 A3028 RMK A01 T00421045  RH  053%=      5-min Rain = 0
KOD1 130741Z 08007KT 04/M05 A3028 RMK A01 T00421045  RH  053%=      5-min Rain = 0
KOD1 130742Z 08007KT 04/M05 A3028 RMK A01 T00431045  RH  053%=      5-min Rain = 0
KOD1 130743Z 08007KT 04/M05 A3028 RMK A01 T00431045  RH  053%=      5-min Rain = 0
KOD1 130744Z 08007KT 04/M05 A3028 RMK A01 T00421045  RH  053%=      5-min Rain = 0
KOD1 130745Z 08007KT 04/M05 A3028 RMK A01 T00431045  RH  053%=      5-min Rain = 0
KOD1 130746Z 08007KT 04/M05 A3028 RMK A01 T00421045  RH  053%=      5-min Rain = 0
KOD1 130747Z 08007KT 04/M05 A3028 RMK A01 T00421046  RH  053%=      5-min Rain = 0
KOD1 130748Z 08007KT 04/M05 A3028 RMK A01 T00421046  RH  053%=      5-min Rain = 0
KOD1 130749Z 07006KT 04/M05 A3028 RMK A01 T00411047  RH  053%=      5-min Rain = 0
KOD1 130750Z 08006KT 04/M05 A3028 RMK A01 T00411047  RH  053%=      5-min Rain = 0
KOD1 130751Z 08006KT 04/M05 A3028 RMK A01 T00401047  RH  053%=      5-min Rain = 0
KOD1 130752Z 07006KT 04/M05 A3028 RMK A01 T00401047  RH  053%=      5-min Rain = 0
KOD1 130753Z 08007KT 04/M05 A3028 RMK A01 T00411047  RH  053%=      5-min Rain = 0
KOD1 130754Z 08007KT 04/M05 A3028 RMK A01 T00411047  RH  052%=      5-min Rain = 0
KOD1 130755Z 08007KT 04/M05 A3028 RMK A01 T00421047  RH  052%=      5-min Rain = 0
KOD1 130756Z 08007KT 04/M05 A3028 RMK A01 T00421047  RH  052%=      5-min Rain = 0
KOD1 130757Z 07007KT 04/M05 A3028 RMK A01 T00421047  RH  052%=      5-min Rain = 0
KOD1 130758Z 07006KT 04/M05 A3028 RMK A01 T00411047  RH  052%=      5-min Rain = 0
KOD1 130759Z 07006KT 04/M05 A3028 RMK A01 T00411047  RH  053%=      5-min Rain = 0
KOD1 130800Z 07006KT 04/M05 A3028 RMK A01 T00411047  RH  053%=      5-min Rain = 0
KOD1 130801Z 07006KT 04/M05 A3028 RMK A01 T00411047  RH  053%=      5-min Rain = 0
KOD1 130802Z 07005KT 04/M05 A3028 RMK A01 T00401047  RH  053%=      5-min Rain = 0
KOD1 130803Z 07006KT 04/M05 A3028 RMK A01 T00401048  RH  053%=      5-min Rain = 0
KOD1 130804Z 07006KT 04/M05 A3028 RMK A01 T00401047  RH  053%=      5-min Rain = 0
KOD1 130805Z 07006KT 04/M05 A3028 RMK A01 T00401047  RH  053%=      5-min Rain = 0
KOD1 130806Z 08006KT 04/M05 A3028 RMK A01 T00401047  RH  053%=      5-min Rain = 0
KOD1 130807Z 08006KT 04/M05 A3028 RMK A01 T00401046  RH  053%=      5-min Rain = 0
KOD1 130808Z 08007KT 04/M05 A3028 RMK A01 T00401046  RH  053%=      5-min Rain = 0
KOD1 130809Z 08007KT 04/M05 A3028 RMK A01 T00401046  RH  053%=      5-min Rain = 0
KOD1 130810Z 08007KT 04/M05 A3028 RMK A01 T00401046  RH  053%=      5-min Rain = 0
KOD1 130811Z 07006KT 04/M05 A3028 RMK A01 T00401046  RH  053%=      5-min Rain = 0
KOD1 130812Z 08006KT 04/M05 A3028 RMK A01 T00401046  RH  053%=      5-min Rain = 0
KOD1 130813Z 08006KT 04/M05 A3028 RMK A01 T00401046  RH  053%=      5-min Rain = 0
KOD1 130814Z 08006KT 04/M05 A3028 RMK A01 T00391046  RH  054%=      5-min Rain = 0
KOD1 130815Z 08006KT 04/M05 A3028 RMK A01 T00391046  RH  054%=      5-min Rain = 0
KOD1 130816Z 08006KT 04/M05 A3028 RMK A01 T00381047  RH  054%=      5-min Rain = 0
KOD1 130817Z 08006KT 04/M05 A3028 RMK A01 T00371046  RH  054%=      5-min Rain = 0
KOD1 130818Z 08006KT 04/M05 A3028 RMK A01 T00371046  RH  055%=      5-min Rain = 0
KOD1 130819Z 08006KT 04/M05 A3028 RMK A01 T00361046  RH  055%=      5-min Rain = 0
KOD1 130820Z 08006KT 04/M05 A3028 RMK A01 T00361046  RH  055%=      5-min Rain = 0
KOD1 130821Z 08006KT 04/M05 A3028 RMK A01 T00351046  RH  055%=      5-min Rain = 0
KOD1 130822Z 08006KT 04/M05 A3028 RMK A01 T00351046  RH  055%=      5-min Rain = 0
KOD1 130823Z 08006KT 04/M05 A3028 RMK A01 T00351046  RH  056%=      5-min Rain = 0
KOD1 130824Z 09006KT 04/M05 A3028 RMK A01 T00351046  RH  056%=      5-min Rain = 0
KOD1 130825Z 09006KT 03/M05 A3028 RMK A01 T00341046  RH  056%=      5-min Rain = 0
KOD1 130826Z 09006KT 03/M05 A3028 RMK A01 T00341046  RH  056%=      5-min Rain = 0
KOD1 130827Z 09006KT 03/M05 A3028 RMK A01 T00341046  RH  056%=      5-min Rain = 0
KOD1 130828Z 09006KT 03/M05 A3028 RMK A01 T00331046  RH  056%=      5-min Rain = 0
KOD1 130829Z 09006KT 03/M05 A3028 RMK A01 T00331046  RH  056%=      5-min Rain = 0
KOD1 130830Z 09006KT 03/M05 A3028 RMK A01 T00331046  RH  057%=      5-min Rain = 0
KOD1 130831Z 09006KT 03/M05 A3028 RMK A01 T00321046  RH  057%=      5-min Rain = 0
KOD1 130832Z 09006KT 03/M05 A3028 RMK A01 T00321046  RH  057%=      5-min Rain = 0
KOD1 130833Z 09006KT 03/M05 A3028 RMK A01 T00321046  RH  057%=      5-min Rain = 0
KOD1 130834Z 10006KT 03/M05 A3028 RMK A01 T00311046  RH  057%=      5-min Rain = 0
KOD1 130835Z 09006KT 03/M05 A3028 RMK A01 T00301046  RH  057%=      5-min Rain = 0
KOD1 130836Z 09005KT 03/M05 A3028 RMK A01 T00301046  RH  058%=      5-min Rain = 0
KOD1 130837Z 09005KT 03/M05 A3028 RMK A01 T00291046  RH  058%=      5-min Rain = 0
KOD1 130838Z 09005KT 03/M05 A3028 RMK A01 T00281046  RH  058%=      5-min Rain = 0
KOD1 130839Z 09005KT 03/M05 A3028 RMK A01 T00271046  RH  059%=      5-min Rain = 0
KOD1 130840Z 09005KT 03/M05 A3028 RMK A01 T00271045  RH  059%=      5-min Rain = 0
KOD1 130841Z 09005KT 03/M05 A3028 RMK A01 T00271045  RH  059%=      5-min Rain = 0
KOD1 130842Z 09005KT 03/M05 A3028 RMK A01 T00271045  RH  059%=      5-min Rain = 0
KOD1 130843Z 09005KT 03/M05 A3028 RMK A01 T00261046  RH  059%=      5-min Rain = 0
KOD1 130844Z 09005KT 03/M05 A3028 RMK A01 T00261045  RH  059%=      5-min Rain = 0
KOD1 130845Z 09005KT 03/M05 A3028 RMK A01 T00261045  RH  059%=      5-min Rain = 0
KOD1 130846Z 09005KT 03/M05 A3028 RMK A01 T00261045  RH  059%=      5-min Rain = 0
KOD1 130847Z 09005KT 03/M05 A3028 RMK A01 T00261045  RH  059%=      5-min Rain = 0
KOD1 130848Z 09005KT 03/M05 A3028 RMK A01 T00271045  RH  059%=      5-min Rain = 0
KOD1 130849Z 09005KT 03/M05 A3028 RMK A01 T00271045  RH  059%=      5-min Rain = 0
KOD1 130850Z 09005KT 03/M04 A3028 RMK A01 T00271044  RH  059%=      5-min Rain = 0
KOD1 130851Z 10005KT 03/M05 A3028 RMK A01 T00281045  RH  059%=      5-min Rain = 0
KOD1 130852Z 10005KT 03/M05 A3028 RMK A01 T00281045  RH  059%=      5-min Rain = 0
KOD1 130853Z 10005KT 03/M04 A3028 RMK A01 T00281044  RH  059%=      5-min Rain = 0
KOD1 130854Z 10004KT 03/M04 A3028 RMK A01 T00281044  RH  059%=      5-min Rain = 0
KOD1 130855Z 10005KT 03/M05 A3028 RMK A01 T00281045  RH  059%=      5-min Rain = 0
KOD1 130856Z 10005KT 03/M05 A3028 RMK A01 T00291045  RH  059%=      5-min Rain = 0
KOD1 130857Z 10005KT 03/M05 A3028 RMK A01 T00291045  RH  058%=      5-min Rain = 0
KOD1 130858Z 09005KT 03/M05 A3028 RMK A01 T00291046  RH  058%=      5-min Rain = 0
KOD1 130859Z 09005KT 03/M05 A3028 RMK A01 T00291047  RH  057%=      5-min Rain = 0
KOD1 130900Z 09005KT 03/M05 A3028 RMK A01 T00301047  RH  057%=      5-min Rain = 0
KOD1 130901Z 08005KT 03/M05 A3028 RMK A01 T00301047  RH  057%=      5-min Rain = 0
KOD1 130902Z 08005KT 03/M05 A3028 RMK A01 T00301047  RH  057%=      5-min Rain = 0
KOD1 130903Z 08005KT 03/M05 A3028 RMK A01 T00311048  RH  056%=      5-min Rain = 0
KOD1 130904Z 08004KT 03/M05 A3028 RMK A01 T00311048  RH  056%=      5-min Rain = 0
KOD1 130905Z 08004KT 03/M05 A3028 RMK A01 T00311048  RH  056%=      5-min Rain = 0
KOD1 130906Z 07004KT 03/M05 A3028 RMK A01 T00301049  RH  056%=      5-min Rain = 0
KOD1 130907Z 07004KT 03/M05 A3028 RMK A01 T00291050  RH  056%=      5-min Rain = 0
KOD1 130908Z 06004KT 03/M05 A3028 RMK A01 T00261050  RH  057%=      5-min Rain = 0
KOD1 130909Z 06004KT 02/M05 A3028 RMK A01 T00241049  RH  059%=      5-min Rain = 0
KOD1 130910Z 06004KT 02/M05 A3028 RMK A01 T00221049  RH  060%=      5-min Rain = 0
KOD1 130911Z 05004KT 02/M05 A3028 RMK A01 T00191049  RH  061%=      5-min Rain = 0
KOD1 130912Z 05004KT 02/M05 A3028 RMK A01 T00171049  RH  061%=      5-min Rain = 0
KOD1 130913Z 05005KT 02/M05 A3028 RMK A01 T00151050  RH  062%=      5-min Rain = 0
KOD1 130914Z 05004KT 01/M05 A3028 RMK A01 T00131050  RH  063%=      5-min Rain = 0
KOD1 130915Z 05004KT 01/M05 A3028 RMK A01 T00121051  RH  063%=      5-min Rain = 0
KOD1 130916Z 05004KT 01/M05 A3028 RMK A01 T00101051  RH  064%=      5-min Rain = 0
KOD1 130917Z 05004KT 01/M05 A3028 RMK A01 T00091050  RH  065%=      5-min Rain = 0
KOD1 130918Z 05004KT 01/M05 A3028 RMK A01 T00081050  RH  065%=      5-min Rain = 0
KOD1 130919Z 04005KT 01/M05 A3028 RMK A01 T00061050  RH  066%=      5-min Rain = 0
KOD1 130920Z 04004KT 01/M05 A3028 RMK A01 T00051050  RH  066%=      5-min Rain = 0
KOD1 130921Z 04004KT 01/M05 A3028 RMK A01 T00051050  RH  067%=      5-min Rain = 0
KOD1 130922Z 04004KT 00/M05 A3028 RMK A01 T00041050  RH  067%=      5-min Rain = 0
KOD1 130923Z 04005KT 00/M05 A3028 RMK A01 T00031050  RH  067%=      5-min Rain = 0
KOD1 130924Z 04005KT 00/M05 A3028 RMK A01 T00031050  RH  068%=      5-min Rain = 0
KOD1 130925Z 04005KT 00/M05 A3028 RMK A01 T00021050  RH  068%=      5-min Rain = 0
KOD1 130926Z 04005KT 00/M05 A3028 RMK A01 T00021050  RH  068%=      5-min Rain = 0
KOD1 130927Z 04005KT 00/M05 A3028 RMK A01 T00011051  RH  068%=      5-min Rain = 0
KOD1 130928Z 04004KT M00/M05 A3028 RMK A01 T10011051  RH  069%=      5-min Rain = 0
KOD1 130929Z 05005KT M00/M05 A3028 RMK A01 T10011050  RH  070%=      5-min Rain = 0
KOD1 130930Z 05005KT M00/M05 A3028 RMK A01 T10021049  RH  070%=      5-min Rain = 0
KOD1 130931Z 05005KT M00/M05 A3028 RMK A01 T10011048  RH  071%=      5-min Rain = 0
KOD1 130932Z 05005KT M00/M05 A3028 RMK A01 T10011048  RH  071%=      5-min Rain = 0
KOD1 130933Z 04006KT M00/M05 A3028 RMK A01 T10011048  RH  070%=      5-min Rain = 0
KOD1 130934Z 04006KT M00/M05 A3028 RMK A01 T10021049  RH  070%=      5-min Rain = 0
KOD1 130935Z 04006KT M00/M05 A3028 RMK A01 T10031051  RH  070%=      5-min Rain = 0
KOD1 130936Z 05006KT M00/M05 A3028 RMK A01 T10041051  RH  071%=      5-min Rain = 0
KOD1 130937Z 05006KT M01/M05 A3028 RMK A01 T10061051  RH  071%=      5-min Rain = 0
KOD1 130938Z 05006KT M01/M05 A3028 RMK A01 T10061051  RH  072%=      5-min Rain = 0
KOD1 130939Z 05006KT M01/M05 A3028 RMK A01 T10071051  RH  072%=      5-min Rain = 0
KOD1 130940Z 05006KT M01/M05 A3028 RMK A01 T10081051  RH  073%=      5-min Rain = 0
KOD1 130941Z 04006KT M01/M05 A3028 RMK A01 T10081050  RH  073%=      5-min Rain = 0
KOD1 130942Z 04006KT M01/M05 A3028 RMK A01 T10081050  RH  073%=      5-min Rain = 0
KOD1 130943Z 04006KT M01/M05 A3028 RMK A01 T10091050  RH  073%=      5-min Rain = 0
KOD1 130944Z 04006KT M01/M05 A3028 RMK A01 T10091050  RH  074%=      5-min Rain = 0
KOD1 130945Z 05006KT M01/M05 A3028 RMK A01 T10091049  RH  074%=      5-min Rain = 0
KOD1 130946Z 05006KT M01/M05 A3028 RMK A01 T10081049  RH  074%=      5-min Rain = 0
KOD1 130947Z 05005KT M01/M05 A3028 RMK A01 T10081049  RH  074%=      5-min Rain = 0
KOD1 130948Z 05006KT M01/M05 A3028 RMK A01 T10081048  RH  074%=      5-min Rain = 0
KOD1 130949Z 05006KT M01/M05 A3028 RMK A01 T10081048  RH  074%=      5-min Rain = 0
KOD1 130950Z 05006KT M01/M05 A3028 RMK A01 T10081048  RH  074%=      5-min Rain = 0
KOD1 130951Z 05006KT M01/M05 A3028 RMK A01 T10081047  RH  075%=      5-min Rain = 0
KOD1 130952Z 05006KT M01/M05 A3028 RMK A01 T10071047  RH  075%=      5-min Rain = 0
KOD1 130953Z 05006KT M01/M05 A3028 RMK A01 T10071046  RH  075%=      5-min Rain = 0
KOD1 130954Z 05006KT M01/M05 A3028 RMK A01 T10071046  RH  075%=      5-min Rain = 0
KOD1 130955Z 05006KT M01/M05 A3028 RMK A01 T10071045  RH  076%=      5-min Rain = 0
KOD1 130956Z 05006KT M01/M04 A3028 RMK A01 T10071044  RH  076%=      5-min Rain = 0
KOD1 130957Z 05006KT M01/M05 A3028 RMK A01 T10071045  RH  076%=      5-min Rain = 0
KOD1 130958Z 05006KT M01/M05 A3028 RMK A01 T10071045  RH  075%=      5-min Rain = 0
KOD1 130959Z 06006KT M01/M05 A3028 RMK A01 T10081045  RH  076%=      5-min Rain = 0
KOD1 131000Z 06006KT M01/M05 A3028 RMK A01 T10081045  RH  076%=      5-min Rain = 0
KOD1 131001Z 06006KT M01/M05 A3028 RMK A01 T10071045  RH  076%=      5-min Rain = 0
KOD1 131002Z 06007KT M01/M05 A3028 RMK A01 T10071045  RH  075%=      5-min Rain = 0
KOD1 131003Z 06007KT M01/M05 A3028 RMK A01 T10061045  RH  075%=      5-min Rain = 0
KOD1 131004Z 06006KT M01/M05 A3028 RMK A01 T10051046  RH  074%=      5-min Rain = 0
KOD1 131005Z 06007KT M00/M05 A3028 RMK A01 T10041047  RH  073%=      5-min Rain = 0
KOD1 131006Z 06006KT M00/M05 A3028 RMK A01 T10041047  RH  073%=      5-min Rain = 0
KOD1 131007Z 06006KT M00/M05 A3028 RMK A01 T10031047  RH  072%=      5-min Rain = 0
KOD1 131008Z 06006KT M00/M05 A3028 RMK A01 T10021047  RH  072%=      5-min Rain = 0
KOD1 131009Z 06006KT M00/M05 A3029 RMK A01 T10011047  RH  071%=      5-min Rain = 0
KOD1 131010Z 06006KT M00/M05 A3029 RMK A01 T10011047  RH  071%=      5-min Rain = 0
KOD1 131011Z 06006KT 00/05 A3029 RMK A01 T00-00-47  RH  071%=      5-min Rain = 0
KOD1 131012Z 06006KT 00/05 A3029 RMK A01 T00000-47  RH  070%=      5-min Rain = 0
KOD1 131013Z 06006KT 00/M05 A3029 RMK A01 T00011047  RH  070%=      5-min Rain = 0
KOD1 131014Z 06006KT 00/M05 A3029 RMK A01 T00011047  RH  070%=      5-min Rain = 0
KOD1 131015Z 05006KT 00/M05 A3029 RMK A01 T00021047  RH  070%=      5-min Rain = 0
KOD1 131016Z 05006KT 00/M05 A3029 RMK A01 T00011047  RH  070%=      5-min Rain = 0
KOD1 131017Z 06006KT 00/M05 A3029 RMK A01 T00011048  RH  070%=      5-min Rain = 0
KOD1 131018Z 06006KT 00/M05 A3029 RMK A01 T00011048  RH  070%=      5-min Rain = 0
KOD1 131019Z 06006KT 00/M05 A3029 RMK A01 T00011048  RH  070%=      5-min Rain = 0
KOD1 131020Z 06006KT 00/M05 A3029 RMK A01 T00011047  RH  070%=      5-min Rain = 0
KOD1 131021Z 07005KT 00/M05 A3029 RMK A01 T00021047  RH  070%=      5-min Rain = 0
KOD1 131022Z 07005KT 00/M05 A3029 RMK A01 T00031047  RH  069%=      5-min Rain = 0
KOD1 131023Z 07005KT 00/M05 A3029 RMK A01 T00041047  RH  068%=      5-min Rain = 0
KOD1 131024Z 07005KT 01/M05 A3028 RMK A01 T00051047  RH  068%=      5-min Rain = 0
KOD1 131025Z 06005KT 01/M05 A3029 RMK A01 T00071047  RH  067%=      5-min Rain = 0
KOD1 131026Z 06005KT 01/M05 A3029 RMK A01 T00081047  RH  067%=      5-min Rain = 0
KOD1 131027Z 06005KT 01/M05 A3029 RMK A01 T00091047  RH  066%=      5-min Rain = 0
KOD1 131028Z 06005KT 01/M05 A3029 RMK A01 T00101047  RH  066%=      5-min Rain = 0
KOD1 131029Z 06005KT 01/M05 A3029 RMK A01 T00121046  RH  065%=      5-min Rain = 0
KOD1 131030Z 06005KT 01/M05 A3029 RMK A01 T00131046  RH  064%=      5-min Rain = 0
KOD1 131031Z 06005KT 02/M05 A3029 RMK A01 T00151046  RH  064%=      5-min Rain = 0
KOD1 131032Z 06005KT 02/M05 A3029 RMK A01 T00161047  RH  063%=      5-min Rain = 0
KOD1 131033Z 06005KT 02/M05 A3029 RMK A01 T00171047  RH  063%=      5-min Rain = 0
KOD1 131034Z 06005KT 02/M05 A3029 RMK A01 T00171047  RH  062%=      5-min Rain = 0
KOD1 131035Z 06005KT 02/M05 A3029 RMK A01 T00171048  RH  062%=      5-min Rain = 0
KOD1 131036Z 06005KT 02/M05 A3029 RMK A01 T00171048  RH  062%=      5-min Rain = 0
KOD1 131037Z 06005KT 02/M05 A3029 RMK A01 T00161048  RH  062%=      5-min Rain = 0
KOD1 131038Z 06005KT 02/M05 A3029 RMK A01 T00161048  RH  063%=      5-min Rain = 0
KOD1 131039Z 06005KT 02/M05 A3029 RMK A01 T00151048  RH  063%=      5-min Rain = 0
KOD1 131040Z 06005KT 02/M05 A3029 RMK A01 T00151048  RH  063%=      5-min Rain = 0
KOD1 131041Z 06005KT 01/M05 A3029 RMK A01 T00141049  RH  063%=      5-min Rain = 0
KOD1 131042Z 06005KT 01/M05 A3029 RMK A01 T00131049  RH  064%=      5-min Rain = 0
KOD1 131043Z 06005KT 01/M05 A3029 RMK A01 T00121049  RH  064%=      5-min Rain = 0
KOD1 131044Z 06005KT 01/M05 A3029 RMK A01 T00111048  RH  065%=      5-min Rain = 0
KOD1 131045Z 06006KT 01/M05 A3029 RMK A01 T00101048  RH  065%=      5-min Rain = 0
KOD1 131046Z 06006KT 01/M05 A3029 RMK A01 T00091048  RH  066%=      5-min Rain = 0
KOD1 131047Z 06005KT 01/M05 A3029 RMK A01 T00081048  RH  066%=      5-min Rain = 0
KOD1 131048Z 06005KT 01/M05 A3029 RMK A01 T00071047  RH  067%=      5-min Rain = 0
KOD1 131049Z 06006KT 01/M05 A3029 RMK A01 T00071047  RH  067%=      5-min Rain = 0
KOD1 131050Z 06005KT 01/M05 A3029 RMK A01 T00071047  RH  067%=      5-min Rain = 0
KOD1 131051Z 06005KT 01/M05 A3029 RMK A01 T00061047  RH  067%=      5-min Rain = 0
KOD1 131052Z 06005KT 01/M05 A3029 RMK A01 T00061047  RH  068%=      5-min Rain = 0
KOD1 131053Z 06005KT 01/M05 A3029 RMK A01 T00051047  RH  068%=      5-min Rain = 0
KOD1 131054Z 06006KT 01/M05 A3029 RMK A01 T00051047  RH  068%=      5-min Rain = 0
KOD1 131055Z 06006KT 01/M05 A3029 RMK A01 T00051047  RH  068%=      5-min Rain = 0
KOD1 131056Z 06005KT 00/M05 A3029 RMK A01 T00041047  RH  069%=      5-min Rain = 0
KOD1 131057Z 06006KT 00/M05 A3029 RMK A01 T00041047  RH  069%=      5-min Rain = 0
KOD1 131058Z 06005KT 00/M05 A3029 RMK A01 T00041047  RH  069%=      5-min Rain = 0
KOD1 131059Z 05005KT 00/M05 A3029 RMK A01 T00031047  RH  069%=      5-min Rain = 0
KOD1 131100Z 05006KT 00/M05 A3029 RMK A01 T00031047  RH  069%=      5-min Rain = 0
KOD1 131101Z 06005KT 00/M05 A3029 RMK A01 T00021047  RH  070%=      5-min Rain = 0
KOD1 131102Z 05005KT 00/M05 A3029 RMK A01 T00021047  RH  070%=      5-min Rain = 0
KOD1 131103Z 05005KT 00/M05 A303 RMK A01 T00011046  RH  071%=      5-min Rain = 0
KOD1 131104Z 04004KT 00/M05 A303 RMK A01 T00011045  RH  071%=      5-min Rain = 0
KOD1 131105Z 03004KT 00/M05 A303 RMK A01 T00021045  RH  070%=      5-min Rain = 0
KOD1 131106Z 03003KT 00/M05 A303 RMK A01 T00021045  RH  070%=      5-min Rain = 0
KOD1 131107Z 02003KT 00/M05 A303 RMK A01 T00031045  RH  070%=      5-min Rain = 0
KOD1 131108Z 01004KT 00/M05 A303 RMK A01 T00041045  RH  070%=      5-min Rain = 0
KOD1 131109Z 01004KT 01/M05 A303 RMK A01 T00051046  RH  069%=      5-min Rain = 0
KOD1 131110Z 01004KT 00/M05 A303 RMK A01 T00041047  RH  069%=      5-min Rain = 0
KOD1 131111Z 00004KT 00/M05 A303 RMK A01 T00031049  RH  068%=      5-min Rain = 0
KOD1 131112Z 35004KT 00/M05 A303 RMK A01 T00011050  RH  069%=      5-min Rain = 0
KOD1 131113Z 35004KT M00/M05 A303 RMK A01 T10021050  RH  070%=      5-min Rain = 0
KOD1 131114Z 35004KT M00/M05 A303 RMK A01 T10041049  RH  071%=      5-min Rain = 0
KOD1 131115Z 35004KT M01/M05 A303 RMK A01 T10051050  RH  072%=      5-min Rain = 0
KOD1 131116Z 35004KT M01/M05 A303 RMK A01 T10071050  RH  073%=      5-min Rain = 0
KOD1 131117Z 35004KT M01/M05 A3031 RMK A01 T10081051  RH  073%=      5-min Rain = 0
KOD1 131118Z 34004KT M01/M05 A3031 RMK A01 T10101051  RH  073%=      5-min Rain = 0
KOD1 131119Z 34004KT M01/M05 A3031 RMK A01 T10111052  RH  074%=      5-min Rain = 0
KOD1 131120Z 34004KT M01/M05 A3031 RMK A01 T10121053  RH  074%=      5-min Rain = 0
KOD1 131121Z 34004KT M01/M05 A3031 RMK A01 T10141053  RH  075%=      5-min Rain = 0
KOD1 131122Z 34004KT M01/M05 A3031 RMK A01 T10141053  RH  075%=      5-min Rain = 0
KOD1 131123Z 34004KT M02/M05 A3031 RMK A01 T10151053  RH  076%=      5-min Rain = 0
KOD1 131124Z 34004KT M02/M05 A3031 RMK A01 T10161052  RH  076%=      5-min Rain = 0
KOD1 131125Z 34004KT M02/M05 A3031 RMK A01 T10161052  RH  077%=      5-min Rain = 0
KOD1 131126Z 34004KT M02/M05 A3031 RMK A01 T10161051  RH  077%=      5-min Rain = 0
KOD1 131127Z 34004KT M02/M05 A3031 RMK A01 T10161051  RH  077%=      5-min Rain = 0
KOD1 131128Z 34004KT M02/M05 A3031 RMK A01 T10171051  RH  078%=      5-min Rain = 0
KOD1 131129Z 33004KT M02/M05 A3031 RMK A01 T10171050  RH  078%=      5-min Rain = 0
KOD1 131130Z 33004KT M02/M05 A3031 RMK A01 T10171049  RH  078%=      5-min Rain = 0
KOD1 131131Z 33003KT M02/M05 A3031 RMK A01 T10171049  RH  078%=      5-min Rain = 0
KOD1 131132Z 32003KT M02/M05 A3031 RMK A01 T10171048  RH  079%=      5-min Rain = 0
KOD1 131133Z 32003KT M02/M05 A3031 RMK A01 T10171048  RH  079%=      5-min Rain = 0
KOD1 131134Z 30002KT M02/M05 A3031 RMK A01 T10171049  RH  079%=      5-min Rain = 0
KOD1 131135Z 30002KT M02/M05 A3031 RMK A01 T10181050  RH  079%=      5-min Rain = 0
KOD1 131136Z 30002KT M02/M05 A3031 RMK A01 T10181050  RH  079%=      5-min Rain = 0
KOD1 131137Z 31002KT M02/M05 A3032 RMK A01 T10191050  RH  079%=      5-min Rain = 0
KOD1 131138Z 31002KT M02/M05 A3032 RMK A01 T10201051  RH  079%=      5-min Rain = 0
KOD1 131139Z 32003KT M02/M05 A3032 RMK A01 T10201051  RH  080%=      5-min Rain = 0
KOD1 131140Z 32003KT M02/M05 A3032 RMK A01 T10201050  RH  080%=      5-min Rain = 0
KOD1 131141Z 32004KT M02/M05 A3032 RMK A01 T10201050  RH  080%=      5-min Rain = 0
KOD1 131142Z 32004KT M02/M05 A3032 RMK A01 T10211050  RH  080%=      5-min Rain = 0
KOD1 131143Z 33004KT M02/M05 A3032 RMK A01 T10211050  RH  080%=      5-min Rain = 0
KOD1 131144Z 33004KT M02/M05 A3032 RMK A01 T10211050  RH  080%=      5-min Rain = 0
KOD1 131145Z 33004KT M02/M05 A3032 RMK A01 T10211051  RH  080%=      5-min Rain = 0
KOD1 131146Z 33004KT M02/M05 A3032 RMK A01 T10221051  RH  080%=      5-min Rain = 0
KOD1 131147Z 33003KT M02/M05 A3032 RMK A01 T10221051  RH  081%=      5-min Rain = 0
KOD1 131148Z 33003KT M02/M05 A3032 RMK A01 T10221051  RH  081%=      5-min Rain = 0
KOD1 131149Z 33003KT M02/M05 A3032 RMK A01 T10221050  RH  081%=      5-min Rain = 0
KOD1 131150Z 32003KT M02/M05 A3032 RMK A01 T10221049  RH  082%=      5-min Rain = 0
KOD1 131151Z 32002KT M02/M05 A3032 RMK A01 T10211048  RH  082%=      5-min Rain = 0
KOD1 131152Z 32002KT M02/M05 A3032 RMK A01 T10211047  RH  082%=      5-min Rain = 0
KOD1 131153Z 32002KT M02/M05 A3032 RMK A01 T10201047  RH  082%=      5-min Rain = 0
KOD1 131154Z 33002KT M02/M05 A3032 RMK A01 T10201046  RH  082%=      5-min Rain = 0
KOD1 131155Z 33003KT M02/M05 A3032 RMK A01 T10201046  RH  082%=      5-min Rain = 0
KOD1 131156Z 33003KT M02/M05 A3032 RMK A01 T10201046  RH  082%=      5-min Rain = 0
KOD1 131157Z 34004KT M02/M05 A3032 RMK A01 T10201046  RH  082%=      5-min Rain = 0
KOD1 131158Z 34004KT M02/M05 A3032 RMK A01 T10191045  RH  082%=      5-min Rain = 0
KOD1 131159Z 34003KT M02/M04 A3032 RMK A01 T10191044  RH  083%=      5-min Rain = 0
KOD1 131200Z 33003KT M02/M04 A3032 RMK A01 T10181044  RH  082%=      5-min Rain = 0
KOD1 131201Z 33003KT M02/M04 A3032 RMK A01 T10181044  RH  082%=      5-min Rain = 0
KOD1 131202Z 33002KT M02/M04 A3032 RMK A01 T10181044  RH  082%=      5-min Rain = 0
KOD1 131203Z 32002KT M02/M05 A3033 RMK A01 T10181045  RH  082%=      5-min Rain = 0
KOD1 131204Z 31000KT M02/M05 A3033 RMK A01 T10181046  RH  082%=      5-min Rain = 0
KOD1 131205Z 31000KT M02/M05 A3033 RMK A01 T10181045  RH  082%=      5-min Rain = 0
KOD1 131206Z 31001KT M02/M04 A3033 RMK A01 T10181044  RH  082%=      5-min Rain = 0
KOD1 131207Z 31001KT M02/M04 A3033 RMK A01 T10181044  RH  082%=      5-min Rain = 0
KOD1 131208Z 32002KT M02/M04 A3033 RMK A01 T10181044  RH  082%=      5-min Rain = 0
KOD1 131209Z 33002KT M02/M04 A3033 RMK A01 T10181044  RH  083%=      5-min Rain = 0
KOD1 131210Z 34002KT M02/M04 A3033 RMK A01 T10181043  RH  083%=      5-min Rain = 0
KOD1 131211Z 34002KT M02/M04 A3033 RMK A01 T10181043  RH  083%=      5-min Rain = 0
KOD1 131212Z 35003KT M02/M04 A3033 RMK A01 T10181043  RH  083%=      5-min Rain = 0
KOD1 131213Z 35003KT M02/M04 A3033 RMK A01 T10171043  RH  083%=      5-min Rain = 0
KOD1 131214Z 35003KT M02/M04 A3033 RMK A01 T10171043  RH  083%=      5-min Rain = 0
KOD1 131215Z 35003KT M02/M04 A3033 RMK A01 T10171043  RH  082%=      5-min Rain = 0
KOD1 131216Z 35003KT M02/M04 A3033 RMK A01 T10171044  RH  082%=      5-min Rain = 0
KOD1 131217Z 35002KT M02/M04 A3033 RMK A01 T10171044  RH  082%=      5-min Rain = 0
KOD1 131218Z 35002KT M02/M05 A3033 RMK A01 T10181046  RH  081%=      5-min Rain = 0
KOD1 131219Z 36002KT M02/M05 A3033 RMK A01 T10201048  RH  081%=      5-min Rain = 0
KOD1 131220Z 35002KT M02/M05 A3033 RMK A01 T10201047  RH  082%=      5-min Rain = 0
KOD1 131221Z 35002KT M02/M05 A3033 RMK A01 T10211049  RH  081%=      5-min Rain = 0
KOD1 131222Z 35001KT M02/M05 A3033 RMK A01 T10211050  RH  081%=      5-min Rain = 0
KOD1 131223Z 35001KT M02/M05 A3033 RMK A01 T10221049  RH  082%=      5-min Rain = 0
KOD1 131224Z 34001KT M02/M05 A3033 RMK A01 T10221048  RH  082%=      5-min Rain = 0
KOD1 131225Z 35001KT M02/M05 A3033 RMK A01 T10221047  RH  083%=      5-min Rain = 0
KOD1 131226Z 34001KT M02/M05 A3033 RMK A01 T10211046  RH  083%=      5-min Rain = 0
KOD1 131227Z 35001KT M02/M05 A3033 RMK A01 T10211046  RH  083%=      5-min Rain = 0
KOD1 131228Z 35001KT M02/M05 A3033 RMK A01 T10211045  RH  083%=      5-min Rain = 0
KOD1 131229Z 34002KT M02/M05 A3033 RMK A01 T10211045  RH  083%=      5-min Rain = 0
KOD1 131230Z 34002KT M02/M05 A3033 RMK A01 T10201045  RH  083%=      5-min Rain = 0
KOD1 131231Z 34002KT M02/M05 A3033 RMK A01 T10211045  RH  083%=      5-min Rain = 0
KOD1 131232Z 34003KT M02/M05 A3033 RMK A01 T10211046  RH  083%=      5-min Rain = 0
KOD1 131233Z 34002KT M02/M05 A3033 RMK A01 T10211046  RH  083%=      5-min Rain = 0
KOD1 131234Z 34003KT M02/M05 A3034 RMK A01 T10221047  RH  083%=      5-min Rain = 0
KOD1 131235Z 34003KT M02/M05 A3034 RMK A01 T10221047  RH  083%=      5-min Rain = 0
KOD1 131236Z 34002KT M02/M05 A3034 RMK A01 T10221047  RH  083%=      5-min Rain = 0
KOD1 131237Z 33002KT M02/M05 A3034 RMK A01 T10221047  RH  083%=      5-min Rain = 0
KOD1 131238Z 32002KT M02/M05 A3034 RMK A01 T10221048  RH  083%=      5-min Rain = 0
KOD1 131239Z 32001KT M02/M05 A3034 RMK A01 T10221047  RH  083%=      5-min Rain = 0
KOD1 131240Z 33001KT M02/M05 A3034 RMK A01 T10221047  RH  083%=      5-min Rain = 0
KOD1 131241Z 33001KT M02/M05 A3034 RMK A01 T10221046  RH  084%=      5-min Rain = 0
KOD1 131242Z 34002KT M02/M05 A3034 RMK A01 T10221046  RH  084%=      5-min Rain = 0
KOD1 131243Z 35002KT M02/M05 A3034 RMK A01 T10221046  RH  084%=      5-min Rain = 0
KOD1 131244Z 35003KT M02/M05 A3034 RMK A01 T10221046  RH  084%=      5-min Rain = 0
KOD1 131245Z 35003KT M02/M05 A3034 RMK A01 T10221046  RH  084%=      5-min Rain = 0
KOD1 131246Z 35004KT M02/M05 A3034 RMK A01 T10221046  RH  084%=      5-min Rain = 0
KOD1 131247Z 35004KT M02/M05 A3034 RMK A01 T10221045  RH  084%=      5-min Rain = 0
KOD1 131248Z 35005KT M02/M05 A3034 RMK A01 T10211045  RH  084%=      5-min Rain = 0
KOD1 131249Z 35005KT M02/M05 A3034 RMK A01 T10211045  RH  083%=      5-min Rain = 0
KOD1 131250Z 36005KT M02/M05 A3034 RMK A01 T10211046  RH  083%=      5-min Rain = 0
KOD1 131251Z 00005KT M02/M05 A3034 RMK A01 T10211047  RH  083%=      5-min Rain = 0
KOD1 131252Z 00005KT M02/M05 A3034 RMK A01 T10211047  RH  082%=      5-min Rain = 0
KOD1 131253Z 00005KT M02/M05 A3034 RMK A01 T10221048  RH  082%=      5-min Rain = 0
KOD1 131254Z 36005KT M02/M05 A3034 RMK A01 T10221049  RH  082%=      5-min Rain = 0
KOD1 131255Z 35005KT M02/M05 A3034 RMK A01 T10231049  RH  082%=      5-min Rain = 0
KOD1 131256Z 35005KT M02/M05 A3034 RMK A01 T10231050  RH  082%=      5-min Rain = 0
KOD1 131257Z 35005KT M02/M05 A3035 RMK A01 T10241049  RH  083%=      5-min Rain = 0
KOD1 131258Z 35005KT M02/M05 A3035 RMK A01 T10241049  RH  083%=      5-min Rain = 0
KOD1 131259Z 35005KT M02/M05 A3035 RMK A01 T10241048  RH  083%=      5-min Rain = 0
KOD1 131300Z 35005KT M02/M05 A3035 RMK A01 T10231047  RH  083%=      5-min Rain = 0
KOD1 131301Z 35005KT M02/M05 A3035 RMK A01 T10221047  RH  083%=      5-min Rain = 0
KOD1 131302Z 35005KT M02/M05 A3035 RMK A01 T10221046  RH  083%=      5-min Rain = 0
KOD1 131303Z 35004KT M02/M05 A3035 RMK A01 T10211046  RH  083%=      5-min Rain = 0
KOD1 131304Z 35003KT M02/M05 A3035 RMK A01 T10211046  RH  083%=      5-min Rain = 0
KOD1 131305Z 35003KT M02/M05 A3035 RMK A01 T10201046  RH  083%=      5-min Rain = 0
KOD1 131306Z 34002KT M02/M05 A3035 RMK A01 T10201046  RH  082%=      5-min Rain = 0
KOD1 131307Z 34001KT M02/M05 A3035 RMK A01 T10201046  RH  082%=      5-min Rain = 0
KOD1 131308Z 29001KT M02/M05 A3035 RMK A01 T10211047  RH  082%=      5-min Rain = 0
KOD1 131309Z 27002KT M02/M05 A3035 RMK A01 T10211048  RH  082%=      5-min Rain = 0
KOD1 131310Z 28002KT M02/M05 A3035 RMK A01 T10221048  RH  082%=      5-min Rain = 0
KOD1 131311Z 29002KT M02/M05 A3035 RMK A01 T10221047  RH  083%=      5-min Rain = 0
KOD1 131312Z 31002KT M02/M05 A3035 RMK A01 T10221047  RH  083%=      5-min Rain = 0
KOD1 131313Z 31002KT M02/M05 A3035 RMK A01 T10221047  RH  083%=      5-min Rain = 0
KOD1 131314Z 32002KT M02/M05 A3035 RMK A01 T10211046  RH  083%=      5-min Rain = 0
KOD1 131315Z 32002KT M02/M05 A3035 RMK A01 T10211045  RH  083%=      5-min Rain = 0
KOD1 131316Z 32002KT M02/M04 A3035 RMK A01 T10201044  RH  084%=      5-min Rain = 0
KOD1 131317Z 33002KT M02/M04 A3035 RMK A01 T10191043  RH  084%=      5-min Rain = 0
KOD1 131318Z 33002KT M02/M04 A3035 RMK A01 T10181042  RH  084%=      5-min Rain = 0
KOD1 131319Z 33002KT M02/M04 A3035 RMK A01 T10171041  RH  084%=      5-min Rain = 0
KOD1 131320Z 33002KT M02/M04 A3035 RMK A01 T10161040  RH  084%=      5-min Rain = 0
KOD1 131321Z 33002KT M02/M04 A3036 RMK A01 T10151039  RH  083%=      5-min Rain = 0
KOD1 131322Z 33001KT M01/M04 A3036 RMK A01 T10141039  RH  083%=      5-min Rain = 0
KOD1 131323Z 32001KT M01/M04 A3036 RMK A01 T10131038  RH  083%=      5-min Rain = 0
KOD1 131324Z 31001KT M01/M04 A3036 RMK A01 T10121037  RH  083%=      5-min Rain = 0
KOD1 131325Z 28001KT M01/M04 A3036 RMK A01 T10111036  RH  083%=      5-min Rain = 0
KOD1 131326Z 27002KT M01/M04 A3036 RMK A01 T10101037  RH  082%=      5-min Rain = 0
KOD1 131327Z 27002KT M01/M04 A3036 RMK A01 T10101037  RH  082%=      5-min Rain = 0
KOD1 131328Z 26002KT M01/M04 A3036 RMK A01 T10091038  RH  081%=      5-min Rain = 0
KOD1 131329Z 27002KT M01/M04 A3036 RMK A01 T10091039  RH  080%=      5-min Rain = 0
KOD1 131330Z 27002KT M01/M04 A3036 RMK A01 T10091038  RH  080%=      5-min Rain = 0
KOD1 131331Z 27002KT M01/M04 A3036 RMK A01 T10081038  RH  080%=      5-min Rain = 0
KOD1 131332Z 27002KT M01/M04 A3036 RMK A01 T10081037  RH  080%=      5-min Rain = 0
KOD1 131333Z 26002KT M01/M04 A3036 RMK A01 T10071037  RH  080%=      5-min Rain = 0
KOD1 131334Z 26002KT M01/M04 A3036 RMK A01 T10071037  RH  080%=      5-min Rain = 0
KOD1 131335Z 26003KT M01/M04 A3037 RMK A01 T10061037  RH  079%=      5-min Rain = 0
KOD1 131336Z 26003KT M01/M04 A3037 RMK A01 T10051037  RH  079%=      5-min Rain = 0
KOD1 131337Z 27003KT M01/M04 A3037 RMK A01 T10051036  RH  080%=      5-min Rain = 0
KOD1 131338Z 27003KT M00/M03 A3037 RMK A01 T10031034  RH  080%=      5-min Rain = 0
KOD1 131339Z 26003KT M00/M03 A3037 RMK A01 T10031034  RH  080%=      5-min Rain = 0
KOD1 131340Z 26003KT M00/M03 A3037 RMK A01 T10011032  RH  080%=      5-min Rain = 0
KOD1 131341Z 27003KT M00/M03 A3037 RMK A01 T10011032  RH  079%=      5-min Rain = 0
KOD1 131342Z 28002KT 00/03 A3037 RMK A01 T00000-32  RH  079%=      5-min Rain = 0
KOD1 131343Z 28003KT 00/M03 A3037 RMK A01 T00021031  RH  079%=      5-min Rain = 0
KOD1 131344Z 28003KT 00/M03 A3037 RMK A01 T00031032  RH  077%=      5-min Rain = 0
KOD1 131345Z 29003KT 00/M03 A3037 RMK A01 T00041031  RH  077%=      5-min Rain = 0
KOD1 131346Z 29002KT 01/M03 A3037 RMK A01 T00051032  RH  076%=      5-min Rain = 0
KOD1 131347Z 29003KT 01/M03 A3037 RMK A01 T00061033  RH  075%=      5-min Rain = 0
KOD1 131348Z 29002KT 01/M03 A3037 RMK A01 T00071033  RH  075%=      5-min Rain = 0
KOD1 131349Z 29002KT 01/M03 A3037 RMK A01 T00081032  RH  075%=      5-min Rain = 0
KOD1 131350Z 29002KT 01/M03 A3037 RMK A01 T00081032  RH  074%=      5-min Rain = 0
KOD1 131351Z 30003KT 01/M03 A3037 RMK A01 T00091032  RH  074%=      5-min Rain = 0
KOD1 131352Z 30002KT 01/M03 A3037 RMK A01 T00091032  RH  074%=      5-min Rain = 0
KOD1 131353Z 31002KT 01/M03 A3037 RMK A01 T00101031  RH  074%=      5-min Rain = 0
KOD1 131354Z 32002KT 01/M03 A3038 RMK A01 T00111031  RH  073%=      5-min Rain = 0
KOD1 131355Z 33002KT 01/M03 A3038 RMK A01 T00121030  RH  073%=      5-min Rain = 0
KOD1 131356Z 33002KT 01/M03 A3038 RMK A01 T00131030  RH  073%=      5-min Rain = 0
KOD1 131357Z 32002KT 01/M03 A3038 RMK A01 T00141030  RH  072%=      5-min Rain = 0
KOD1 131358Z 33002KT 02/M03 A3038 RMK A01 T00161030  RH  072%=      5-min Rain = 0
KOD1 131359Z 32002KT 02/M03 A3038 RMK A01 T00161031  RH  071%=      5-min Rain = 0
KOD1 131400Z 33003KT 02/M03 A3038 RMK A01 T00171032  RH  070%=      5-min Rain = 0
KOD1 131401Z 33003KT 02/M03 A3038 RMK A01 T00181032  RH  070%=      5-min Rain = 0
KOD1 131402Z 33002KT 02/M03 A3038 RMK A01 T00181033  RH  069%=      5-min Rain = 0
KOD1 131403Z 33003KT 02/M03 A3038 RMK A01 T00191033  RH  069%=      5-min Rain = 0
KOD1 131404Z 32002KT 02/M03 A3038 RMK A01 T00191032  RH  069%=      5-min Rain = 0
KOD1 131405Z 33002KT 02/M03 A3038 RMK A01 T00201032  RH  068%=      5-min Rain = 0
KOD1 131406Z 33002KT 02/M03 A3038 RMK A01 T00211031  RH  068%=      5-min Rain = 0
KOD1 131407Z 33002KT 02/M03 A3038 RMK A01 T00221031  RH  068%=      5-min Rain = 0
KOD1 131408Z 33001KT 02/M03 A3038 RMK A01 T00221029  RH  069%=      5-min Rain = 0
KOD1 131409Z 34003KT 02/M03 A3038 RMK A01 T00241028  RH  068%=      5-min Rain = 0
KOD1 131410Z 35003KT 03/M03 A3038 RMK A01 T00251030  RH  067%=      5-min Rain = 0
KOD1 131411Z 35003KT 03/M03 A3038 RMK A01 T00261032  RH  066%=      5-min Rain = 0
KOD1 131412Z 36003KT 03/M03 A3038 RMK A01 T00271032  RH  065%=      5-min Rain = 0
KOD1 131413Z 35003KT 03/M03 A3038 RMK A01 T00281033  RH  064%=      5-min Rain = 0
KOD1 131414Z 01003KT 03/M03 A3038 RMK A01 T00291032  RH  064%=      5-min Rain = 0
KOD1 131415Z 36003KT 03/M03 A3038 RMK A01 T00301031  RH  064%=      5-min Rain = 0
KOD1 131416Z 00003KT 03/M03 A3038 RMK A01 T00321031  RH  064%=      5-min Rain = 0
KOD1 131417Z 00004KT 03/M03 A3038 RMK A01 T00331030  RH  063%=      5-min Rain = 0
KOD1 131418Z 36003KT 03/M03 A3038 RMK A01 T00341031  RH  062%=      5-min Rain = 0
KOD1 131419Z 01003KT 04/M03 A3038 RMK A01 T00351030  RH  063%=      5-min Rain = 0
KOD1 131420Z 01003KT 04/M03 A3038 RMK A01 T00361031  RH  062%=      5-min Rain = 0
KOD1 131421Z 00003KT 04/M03 A3038 RMK A01 T00361031  RH  062%=      5-min Rain = 0
KOD1 131422Z 00004KT 04/M03 A3038 RMK A01 T00361031  RH  061%=      5-min Rain = 0
KOD1 131423Z 01004KT 04/M03 A3038 RMK A01 T00371030  RH  062%=      5-min Rain = 0
KOD1 131424Z 01004KT 04/M03 A3038 RMK A01 T00381030  RH  061%=      5-min Rain = 0
KOD1 131425Z 01004KT 04/M03 A3038 RMK A01 T00391030  RH  061%=      5-min Rain = 0
KOD1 131426Z 01003KT 04/M03 A3038 RMK A01 T00401030  RH  060%=      5-min Rain = 0
KOD1 131427Z 36003KT 04/M03 A3038 RMK A01 T00421027  RH  061%=      5-min Rain = 0
KOD1 131428Z 01003KT 04/M03 A3038 RMK A01 T00431029  RH  059%=      5-min Rain = 0
KOD1 131429Z 01003KT 04/M03 A3038 RMK A01 T00441029  RH  059%=      5-min Rain = 0
KOD1 131430Z 01004KT 04/M03 A3038 RMK A01 T00441029  RH  059%=      5-min Rain = 0
KOD1 131431Z 02004KT 05/M03 A3038 RMK A01 T00451029  RH  059%=      5-min Rain = 0
KOD1 131432Z 01004KT 05/M03 A3038 RMK A01 T00461030  RH  058%=      5-min Rain = 0
KOD1 131433Z 01005KT 05/M03 A3038 RMK A01 T00471031  RH  057%=      5-min Rain = 0
KOD1 131434Z 02004KT 05/M03 A3038 RMK A01 T00471029  RH  058%=      5-min Rain = 0
KOD1 131435Z 01005KT 05/M03 A3038 RMK A01 T00471029  RH  058%=      5-min Rain = 0
KOD1 131436Z 01004KT 05/M03 A3038 RMK A01 T00481028  RH  058%=      5-min Rain = 0
KOD1 131437Z 02004KT 05/M03 A3038 RMK A01 T00491026  RH  058%=      5-min Rain = 0
KOD1 131438Z 03004KT 05/M03 A3038 RMK A01 T00491028  RH  057%=      5-min Rain = 0
KOD1 131439Z 03004KT 05/M03 A3038 RMK A01 T00491026  RH  058%=      5-min Rain = 0
KOD1 131440Z 03004KT 05/M03 A3038 RMK A01 T00501027  RH  057%=      5-min Rain = 0
KOD1 131441Z 02003KT 05/M03 A3038 RMK A01 T00511025  RH  058%=      5-min Rain = 0
KOD1 131442Z 04003KT 05/M03 A3038 RMK A01 T00521025  RH  057%=      5-min Rain = 0
KOD1 131443Z 02003KT 05/M02 A3038 RMK A01 T00531024  RH  057%=      5-min Rain = 0
KOD1 131444Z 02003KT 05/M02 A3038 RMK A01 T00541023  RH  057%=      5-min Rain = 0
KOD1 131445Z 03004KT 05/M03 A3038 RMK A01 T00541026  RH  056%=      5-min Rain = 0
KOD1 131446Z 03005KT 06/M03 A3038 RMK A01 T00561029  RH  054%=      5-min Rain = 0
KOD1 131447Z 03004KT 06/M03 A3038 RMK A01 T00571028  RH  054%=      5-min Rain = 0
KOD1 131448Z 04004KT 06/M03 A3038 RMK A01 T00591027  RH  054%=      5-min Rain = 0
KOD1 131449Z 04004KT 06/M03 A3038 RMK A01 T00601027  RH  054%=      5-min Rain = 0
KOD1 131450Z 03004KT 06/M03 A3038 RMK A01 T00601029  RH  053%=      5-min Rain = 0
KOD1 131451Z 04004KT 06/M03 A3038 RMK A01 T00601027  RH  053%=      5-min Rain = 0
KOD1 131452Z 03003KT 06/M03 A3038 RMK A01 T00631026  RH  053%=      5-min Rain = 0
KOD1 131453Z 04004KT 06/M03 A3038 RMK A01 T00641031  RH  051%=      5-min Rain = 0
KOD1 131454Z 03004KT 07/M03 A3038 RMK A01 T00651032  RH  050%=      5-min Rain = 0
KOD1 131455Z 03004KT 07/M03 A3038 RMK A01 T00651032  RH  050%=      5-min Rain = 0
KOD1 131456Z 03003KT 07/M03 A3038 RMK A01 T00661030  RH  050%=      5-min Rain = 0
KOD1 131457Z 03003KT 07/M03 A3038 RMK A01 T00661028  RH  051%=      5-min Rain = 0
KOD1 131458Z 02003KT 07/M03 A3039 RMK A01 T00681029  RH  050%=      5-min Rain = 0
KOD1 131459Z 03004KT 07/M03 A3039 RMK A01 T00691030  RH  049%=      5-min Rain = 0
KOD1 131500Z 01003KT 07/M03 A3039 RMK A01 T00681030  RH  049%=      5-min Rain = 0
KOD1 131501Z 03003KT 07/M03 A3039 RMK A01 T00701028  RH  050%=      5-min Rain = 0
KOD1 131502Z 03002KT 07/M03 A3039 RMK A01 T00711029  RH  049%=      5-min Rain = 0
KOD1 131503Z 02003KT 07/M03 A3039 RMK A01 T00731028  RH  049%=      5-min Rain = 0
KOD1 131504Z 04004KT 07/M03 A3039 RMK A01 T00741029  RH  048%=      5-min Rain = 0
KOD1 131505Z 05003KT 07/M03 A3039 RMK A01 T00741030  RH  048%=      5-min Rain = 0
KOD1 131506Z 04003KT 08/M03 A3039 RMK A01 T00751030  RH  047%=      5-min Rain = 0
KOD1 131507Z 03003KT 08/M03 A3039 RMK A01 T00761029  RH  047%=      5-min Rain = 0
KOD1 131508Z 03003KT 08/M03 A3039 RMK A01 T00771029  RH  047%=      5-min Rain = 0
KOD1 131509Z 03003KT 08/M03 A3039 RMK A01 T00791029  RH  046%=      5-min Rain = 0
KOD1 131510Z 01005KT 08/M03 A3039 RMK A01 T00811031  RH  045%=      5-min Rain = 0
KOD1 131511Z 02004KT 08/M03 A3039 RMK A01 T00811033  RH  044%=      5-min Rain = 0
KOD1 131512Z 03004KT 08/M04 A3039 RMK A01 T00821035  RH  044%=      5-min Rain = 0
KOD1 131513Z 01004KT 08/M03 A3039 RMK A01 T00821032  RH  044%=      5-min Rain = 0
KOD1 131514Z 03002KT 08/M03 A3039 RMK A01 T00831032  RH  044%=      5-min Rain = 0
KOD1 131515Z 03004KT 09/M03 A3039 RMK A01 T00851034  RH  043%=      5-min Rain = 0
KOD1 131516Z 02004KT 09/M04 A3039 RMK A01 T00861038  RH  041%=      5-min Rain = 0
KOD1 131517Z 03005KT 09/M04 A3039 RMK A01 T00871036  RH  042%=      5-min Rain = 0
KOD1 131518Z 03005KT 09/M04 A3039 RMK A01 T00881038  RH  041%=      5-min Rain = 0
KOD1 131519Z 04004KT 09/M04 A3039 RMK A01 T00891038  RH  041%=      5-min Rain = 0
KOD1 131520Z 03004KT 09/M04 A3039 RMK A01 T00911037  RH  040%=      5-min Rain = 0
KOD1 131521Z 01005KT 09/M04 A3039 RMK A01 T00921043  RH  038%=      5-min Rain = 0
KOD1 131522Z 02005KT 09/M04 A3039 RMK A01 T00921043  RH  038%=      5-min Rain = 0
KOD1 131523Z 03005KT 09/M04 A3039 RMK A01 T00911044  RH  038%=      5-min Rain = 0
KOD1 131524Z 02004KT 09/M04 A3039 RMK A01 T00911042  RH  039%=      5-min Rain = 0
KOD1 131525Z 02004KT 09/M04 A3039 RMK A01 T00911043  RH  039%=      5-min Rain = 0
KOD1 131526Z 00003KT 09/M04 A3039 RMK A01 T00921042  RH  038%=      5-min Rain = 0
KOD1 131527Z 02005KT 09/M04 A3039 RMK A01 T00931041  RH  038%=      5-min Rain = 0
KOD1 131528Z 05005KT 10/M05 A3039 RMK A01 T00951046  RH  037%=      5-min Rain = 0
KOD1 131529Z 05005KT 10/M05 A3039 RMK A01 T00951047  RH  037%=      5-min Rain = 0
KOD1 131530Z 06005KT 09/M05 A3039 RMK A01 T00941047  RH  037%=      5-min Rain = 0
KOD1 131531Z 05006KT 09/M05 A3039 RMK A01 T00941050  RH  036%=      5-min Rain = 0
KOD1 131532Z 04005KT 09/M05 A3039 RMK A01 T00941053  RH  035%=      5-min Rain = 0
KOD1 131533Z 06004KT 10/M05 A3039 RMK A01 T00951050  RH  036%=      5-min Rain = 0
KOD1 131534Z 06006KT 10/M05 A3039 RMK A01 T00961048  RH  036%=      5-min Rain = 0
KOD1 131535Z 07005KT 10/M05 A3039 RMK A01 T00971049  RH  035%=      5-min Rain = 0
KOD1 131536Z 07005KT 10/M05 A3039 RMK A01 T00961050  RH  035%=      5-min Rain = 0
KOD1 131537Z 06004KT 10/M05 A3039 RMK A01 T00971046  RH  036%=      5-min Rain = 0
KOD1 131538Z 06005KT 10/M05 A3039 RMK A01 T00981046  RH  036%=      5-min Rain = 0
KOD1 131539Z 03005KT 10/M05 A3039 RMK A01 T00981046  RH  036%=      5-min Rain = 0
KOD1 131540Z 01005KT 10/M04 A3039 RMK A01 T00981044  RH  036%=      5-min Rain = 0
KOD1 131541Z 02004KT 10/M04 A3039 RMK A01 T00991044  RH  036%=      5-min Rain = 0
KOD1 131542Z 01004KT 10/M04 A3039 RMK A01 T00991043  RH  036%=      5-min Rain = 0
KOD1 131543Z 02004KT 10/M05 A3039 RMK A01 T00991045  RH  036%=      5-min Rain = 0
KOD1 131544Z 01003KT 10/M05 A3039 RMK A01 T00991046  RH  036%=      5-min Rain = 0
KOD1 131545Z 02004KT 10/M05 A3039 RMK A01 T00991046  RH  036%=      5-min Rain = 0
KOD1 131546Z 01003KT 10/M05 A3039 RMK A01 T01001045  RH  036%=      5-min Rain = 0
KOD1 131547Z 03004KT 10/M05 A3039 RMK A01 T01011048  RH  034%=      5-min Rain = 0
KOD1 131548Z 06005KT 10/M05 A3039 RMK A01 T01031052  RH  033%=      5-min Rain = 0
KOD1 131549Z 04006KT 10/M05 A3039 RMK A01 T01041047  RH  034%=      5-min Rain = 0
KOD1 131550Z 04005KT 11/M04 A3039 RMK A01 T01051043  RH  035%=      5-min Rain = 0
KOD1 131551Z 04004KT 11/M05 A3039 RMK A01 T01071046  RH  034%=      5-min Rain = 0
KOD1 131552Z 03004KT 11/M05 A3039 RMK A01 T01081048  RH  033%=      5-min Rain = 0
KOD1 131553Z 03004KT 11/M05 A3039 RMK A01 T01071049  RH  033%=      5-min Rain = 0
KOD1 131554Z 05008KT 11/M06 A3039 RMK A01 T01071057  RH  031%=      5-min Rain = 0
KOD1 131555Z 05007KT 11/M06 A3039 RMK A01 T01081061  RH  030%=      5-min Rain = 0
KOD1 131556Z 05007KT 11/M06 A3039 RMK A01 T01071059  RH  031%=      5-min Rain = 0
KOD1 131557Z 05007KT 11/M06 A3039 RMK A01 T01071059  RH  031%=      5-min Rain = 0
KOD1 131558Z 05005KT 11/M06 A3039 RMK A01 T01071057  RH  031%=      5-min Rain = 0
KOD1 131559Z 04006KT 11/M06 A3039 RMK A01 T01071058  RH  031%=      5-min Rain = 0
KOD1 131600Z 04005KT 11/M06 A3039 RMK A01 T01071057  RH  031%=      5-min Rain = 0
KOD1 131601Z 06005KT 11/M06 A3039 RMK A01 T01061056  RH  031%=      5-min Rain = 0
KOD1 131602Z 06006KT 11/M06 A3039 RMK A01 T01071056  RH  031%=      5-min Rain = 0
KOD1 131603Z 06006KT 11/M06 A3039 RMK A01 T01071057  RH  031%=      5-min Rain = 0
KOD1 131604Z 09008KT 11/M06 A3039 RMK A01 T01081059  RH  030%=      5-min Rain = 0
KOD1 131605Z 09007KT 11/M06 A3039 RMK A01 T01111060  RH  030%=      5-min Rain = 0
KOD1 131606Z 10007KT 11/M06 A3039 RMK A01 T01121062  RH  029%=      5-min Rain = 0
KOD1 131607Z 10009KT 11/M06 A3039 RMK A01 T01111061  RH  029%=      5-min Rain = 0
KOD1 131608Z 10008KT 11/M06 A3039 RMK A01 T01101060  RH  030%=      5-min Rain = 0
KOD1 131609Z 10007KT 11/M06 A3039 RMK A01 T01111060  RH  029%=      5-min Rain = 0
KOD1 131610Z 10008KT 11/M06 A3039 RMK A01 T01111058  RH  030%=      5-min Rain = 0
KOD1 131611Z 07007KT 11/M06 A3039 RMK A01 T01131056  RH  030%=      5-min Rain = 0
KOD1 131612Z 07007KT 12/M06 A3039 RMK A01 T01161055  RH  030%=      5-min Rain = 0
KOD1 131613Z 06008KT 12/M06 A3039 RMK A01 T01171059  RH  029%=      5-min Rain = 0
KOD1 131614Z 06007KT 12/M06 A3039 RMK A01 T01161061  RH  028%=      5-min Rain = 0
KOD1 131615Z 06006KT 11/M06 A3039 RMK A01 T01141059  RH  029%=      5-min Rain = 0
KOD1 131616Z 06008KT 11/M06 A3039 RMK A01 T01141061  RH  029%=      5-min Rain = 0
KOD1 131617Z 06006KT 11/M06 A3039 RMK A01 T01131061  RH  029%=      5-min Rain = 0
KOD1 131618Z 03006KT 11/M06 A3039 RMK A01 T01121059  RH  029%=      5-min Rain = 0
KOD1 131619Z 03006KT 11/M06 A3039 RMK A01 T01141061  RH  029%=      5-min Rain = 0
KOD1 131620Z 04006KT 11/M06 A3039 RMK A01 T01131057  RH  030%=      5-min Rain = 0
KOD1 131621Z 03006KT 11/M06 A3039 RMK A01 T01131061  RH  029%=      5-min Rain = 0
KOD1 131622Z 03004KT 11/M06 A3039 RMK A01 T01131056  RH  030%=      5-min Rain = 0
KOD1 131623Z 04006KT 12/M06 A3039 RMK A01 T01151055  RH  030%=      5-min Rain = 0
KOD1 131624Z 04007KT 12/M06 A3039 RMK A01 T01181059  RH  029%=      5-min Rain = 0
KOD1 131625Z 04007KT 12/M06 A3039 RMK A01 T01161060  RH  029%=      5-min Rain = 0
KOD1 131626Z 04006KT 12/M06 A3039 RMK A01 T01161057  RH  029%=      5-min Rain = 0
KOD1 131627Z 03006KT 12/M06 A3039 RMK A01 T01161058  RH  029%=      5-min Rain = 0
KOD1 131628Z 03003KT 12/M06 A3039 RMK A01 T01151059  RH  029%=      5-min Rain = 0
KOD1 131629Z 00005KT 12/M06 A3039 RMK A01 T01161056  RH  029%=      5-min Rain = 0
KOD1 131630Z 02005KT 12/M06 A3039 RMK A01 T01161055  RH  030%=      5-min Rain = 0
KOD1 131631Z 07005KT 12/M06 A3039 RMK A01 T01181056  RH  029%=      5-min Rain = 0
KOD1 131632Z 07004KT 12/M05 A304 RMK A01 T01201053  RH  029%=      5-min Rain = 0
KOD1 131633Z 08004KT 12/M05 A304 RMK A01 T01211053  RH  029%=      5-min Rain = 0
KOD1 131634Z 09004KT 12/M05 A304 RMK A01 T01211054  RH  029%=      5-min Rain = 0
KOD1 131635Z 07004KT 12/M05 A304 RMK A01 T01231052  RH  029%=      5-min Rain = 0
KOD1 131636Z 08007KT 12/M05 A304 RMK A01 T01241052  RH  029%=      5-min Rain = 0
KOD1 131637Z 08006KT 12/M06 A304 RMK A01 T01231057  RH  028%=      5-min Rain = 0
KOD1 131638Z 05004KT 12/M06 A3039 RMK A01 T01211055  RH  029%=      5-min Rain = 0
KOD1 131639Z 07005KT 12/M06 A3039 RMK A01 T01211055  RH  029%=      5-min Rain = 0
KOD1 131640Z 06007KT 12/M06 A3039 RMK A01 T01231058  RH  028%=      5-min Rain = 0
KOD1 131641Z 06007KT 12/M06 A3039 RMK A01 T01221060  RH  028%=      5-min Rain = 0
KOD1 131642Z 04006KT 12/M06 A3039 RMK A01 T01191062  RH  028%=      5-min Rain = 0
KOD1 131643Z 02005KT 12/M06 A3039 RMK A01 T01181059  RH  028%=      5-min Rain = 0
KOD1 131644Z 02005KT 12/M06 A3039 RMK A01 T01191059  RH  028%=      5-min Rain = 0
KOD1 131645Z 03006KT 12/M06 A3039 RMK A01 T01201057  RH  028%=      5-min Rain = 0
KOD1 131646Z 02006KT 12/M06 A3039 RMK A01 T01211056  RH  029%=      5-min Rain = 0
KOD1 131647Z 02004KT 12/M06 A3039 RMK A01 T01221056  RH  029%=      5-min Rain = 0
KOD1 131648Z 04004KT 12/M05 A3039 RMK A01 T01231053  RH  029%=      5-min Rain = 0
KOD1 131649Z 05005KT 12/M06 A3039 RMK A01 T01241057  RH  028%=      5-min Rain = 0
KOD1 131650Z 06004KT 12/M06 A3039 RMK A01 T01231057  RH  028%=      5-min Rain = 0
KOD1 131651Z 04007KT 12/M06 A3039 RMK A01 T01241056  RH  028%=      5-min Rain = 0
KOD1 131652Z 04006KT 13/M06 A3039 RMK A01 T01251059  RH  027%=      5-min Rain = 0
KOD1 131653Z 05005KT 13/M06 A3039 RMK A01 T01251059  RH  027%=      5-min Rain = 0
KOD1 131654Z 05004KT 13/M06 A3039 RMK A01 T01261061  RH  027%=      5-min Rain = 0
KOD1 131655Z 08002KT 12/M06 A3039 RMK A01 T01241063  RH  026%=      5-min Rain = 0
KOD1 131656Z 06002KT 13/M06 A3039 RMK A01 T01251060  RH  027%=      5-min Rain = 0
KOD1 131657Z 02005KT 13/M06 A3039 RMK A01 T01271058  RH  027%=      5-min Rain = 0
KOD1 131658Z 01005KT 13/M06 A3039 RMK A01 T01271060  RH  027%=      5-min Rain = 0
KOD1 131659Z 04007KT 13/M06 A3039 RMK A01 T01271059  RH  027%=      5-min Rain = 0
KOD1 131700Z 04009KT 13/M06 A3039 RMK A01 T01271061  RH  027%=      5-min Rain = 0
KOD1 131701Z 03007KT 13/M06 A3039 RMK A01 T01271061  RH  026%=      5-min Rain = 0
KOD1 131702Z 04005KT 13/M06 A3039 RMK A01 T01271061  RH  026%=      5-min Rain = 0
KOD1 131703Z 06005KT 13/M06 A3039 RMK A01 T01261061  RH  027%=      5-min Rain = 0
KOD1 131704Z 06005KT 13/M06 A3039 RMK A01 T01261063  RH  026%=      5-min Rain = 0
KOD1 131705Z 04005KT 13/M06 A3039 RMK A01 T01261061  RH  027%=      5-min Rain = 0
KOD1 131706Z 03006KT 13/M07 A3039 RMK A01 T01281065  RH  025%=      5-min Rain = 0
KOD1 131707Z 04007KT 13/M06 A3039 RMK A01 T01291062  RH  026%=      5-min Rain = 0
KOD1 131708Z 05006KT 13/M07 A3039 RMK A01 T01281065  RH  025%=      5-min Rain = 0
KOD1 131709Z 06004KT 13/M06 A3039 RMK A01 T01281062  RH  026%=      5-min Rain = 0
KOD1 131710Z 06004KT 13/M06 A3039 RMK A01 T01291059  RH  027%=      5-min Rain = 0
KOD1 131711Z 36004KT 13/M06 A3039 RMK A01 T01301059  RH  026%=      5-min Rain = 0
KOD1 131712Z 00004KT 13/M06 A3039 RMK A01 T01311058  RH  026%=      5-min Rain = 0
KOD1 131713Z 03007KT 13/M06 A3039 RMK A01 T01311059  RH  026%=      5-min Rain = 0
KOD1 131714Z 04007KT 13/M06 A3039 RMK A01 T01321061  RH  026%=      5-min Rain = 0
KOD1 131715Z 03005KT 13/M06 A3039 RMK A01 T01321061  RH  026%=      5-min Rain = 0
KOD1 131716Z 03004KT 13/M06 A3039 RMK A01 T01311063  RH  025%=      5-min Rain = 0
KOD1 131717Z 03007KT 13/M07 A3039 RMK A01 T01301065  RH  025%=      5-min Rain = 0
KOD1 131718Z 04008KT 13/M07 A3039 RMK A01 T01301067  RH  025%=      5-min Rain = 0
KOD1 131719Z 05006KT 13/M07 A3039 RMK A01 T01301067  RH  025%=      5-min Rain = 0
KOD1 131720Z 05005KT 13/M07 A3039 RMK A01 T01301066  RH  025%=      5-min Rain = 0
KOD1 131721Z 04003KT 13/M07 A3038 RMK A01 T01311066  RH  025%=      5-min Rain = 0
KOD1 131722Z 02009KT 13/M06 A3038 RMK A01 T01331063  RH  025%=      5-min Rain = 0
KOD1 131723Z 04008KT 13/M07 A3039 RMK A01 T01341067  RH  024%=      5-min Rain = 0
KOD1 131724Z 06006KT 13/M07 A3038 RMK A01 T01331068  RH  024%=      5-min Rain = 0
KOD1 131725Z 04007KT 13/M07 A3038 RMK A01 T01331067  RH  024%=      5-min Rain = 0
KOD1 131726Z 02005KT 13/M07 A3038 RMK A01 T01321067  RH  025%=      5-min Rain = 0
KOD1 131727Z 01003KT 13/M07 A3038 RMK A01 T01311065  RH  025%=      5-min Rain = 0
KOD1 131728Z 04007KT 13/M06 A3038 RMK A01 T01321064  RH  025%=      5-min Rain = 0
KOD1 131729Z 04008KT 13/M06 A3038 RMK A01 T01341063  RH  025%=      5-min Rain = 0
KOD1 131730Z 02006KT 14/M07 A3038 RMK A01 T01351066  RH  024%=      5-min Rain = 0
KOD1 131731Z 01006KT 13/M06 A3038 RMK A01 T01341062  RH  025%=      5-min Rain = 0
KOD1 131732Z 04006KT 13/M07 A3038 RMK A01 T01331066  RH  024%=      5-min Rain = 0
KOD1 131733Z 04009KT 14/M06 A3038 RMK A01 T01351061  RH  025%=      5-min Rain = 0
KOD1 131734Z 04008KT 14/M07 A3038 RMK A01 T01361065  RH  024%=      5-min Rain = 0
KOD1 131735Z 04004KT 13/M06 A3038 RMK A01 T01341061  RH  025%=      5-min Rain = 0
KOD1 131736Z 03007KT 14/M06 A3038 RMK A01 T01351058  RH  026%=      5-min Rain = 0
KOD1 131737Z 05005KT 14/M06 A3038 RMK A01 T01361061  RH  025%=      5-min Rain = 0
KOD1 131738Z 03008KT 14/M06 A3038 RMK A01 T01351061  RH  025%=      5-min Rain = 0
KOD1 131739Z 05008KT 14/M06 A3038 RMK A01 T01351061  RH  025%=      5-min Rain = 0
KOD1 131740Z 03009KT 14/M06 A3038 RMK A01 T01371056  RH  026%=      5-min Rain = 0
KOD1 131741Z 01007KT 14/M06 A3038 RMK A01 T01371059  RH  025%=      5-min Rain = 0
KOD1 131742Z 00005KT 14/M06 A3038 RMK A01 T01351057  RH  026%=      5-min Rain = 0
KOD1 131743Z 02007KT 13/M06 A3038 RMK A01 T01341059  RH  026%=      5-min Rain = 0
KOD1 131744Z 04007KT 13/M06 A3038 RMK A01 T01331059  RH  026%=      5-min Rain = 0
KOD1 131745Z 04005KT 13/M06 A3038 RMK A01 T01331058  RH  026%=      5-min Rain = 0
KOD1 131746Z 02005KT 13/M06 A3038 RMK A01 T01341058  RH  026%=      5-min Rain = 0
KOD1 131747Z 05003KT 14/M06 A3038 RMK A01 T01351061  RH  025%=      5-min Rain = 0
KOD1 131748Z 06003KT 14/M06 A3038 RMK A01 T01351059  RH  026%=      5-min Rain = 0
KOD1 131749Z 03005KT 14/M06 A3038 RMK A01 T01351061  RH  025%=      5-min Rain = 0
KOD1 131750Z 01006G12KT 14/M06 A3038 RMK A01 T01351059  RH  026%=      5-min Rain = 0
KOD1 131751Z 01010KT 14/M06 A3038 RMK A01 T01361058  RH  026%=      5-min Rain = 0
KOD1 131752Z 04007KT 14/M06 A3038 RMK A01 T01361060  RH  025%=      5-min Rain = 0
KOD1 131753Z 05006KT 14/M06 A3038 RMK A01 T01361058  RH  025%=      5-min Rain = 0
KOD1 131754Z 05003KT 14/M06 A3038 RMK A01 T01371059  RH  025%=      5-min Rain = 0
KOD1 131755Z 05004KT 14/M06 A3038 RMK A01 T01381058  RH  025%=      5-min Rain = 0
KOD1 131756Z 04006KT 14/M06 A3038 RMK A01 T01391060  RH  025%=      5-min Rain = 0
KOD1 131757Z 04007KT 14/M06 A3038 RMK A01 T01391061  RH  025%=      5-min Rain = 0
KOD1 131758Z 04004KT 14/M06 A3038 RMK A01 T01371060  RH  025%=      5-min Rain = 0
KOD1 131759Z 05004KT 14/M06 A3038 RMK A01 T01371058  RH  025%=      5-min Rain = 0
KOD1 131800Z 04004KT 14/M06 A3038 RMK A01 T01371059  RH  025%=      5-min Rain = 0
KOD1 131801Z 05006KT 14/M06 A3038 RMK A01 T01371058  RH  025%=      5-min Rain = 0
KOD1 131802Z 06005KT 14/M06 A3038 RMK A01 T01381055  RH  026%=      5-min Rain = 0
KOD1 131803Z 02009KT 14/M06 A3038 RMK A01 T01391058  RH  025%=      5-min Rain = 0
KOD1 131804Z 03013KT 14/M06 A3038 RMK A01 T01411061  RH  024%=      5-min Rain = 0
KOD1 131805Z 02008KT 14/M06 A3038 RMK A01 T01401059  RH  025%=      5-min Rain = 0
KOD1 131806Z 02005KT 14/M06 A3038 RMK A01 T01401058  RH  025%=      5-min Rain = 0
KOD1 131807Z 04006KT 14/M06 A3038 RMK A01 T01401060  RH  024%=      5-min Rain = 0
KOD1 131808Z 05007KT 14/M06 A3038 RMK A01 T01401058  RH  025%=      5-min Rain = 0
KOD1 131809Z 06004KT 14/M06 A3037 RMK A01 T01411060  RH  024%=      5-min Rain = 0
KOD1 131810Z 05003KT 14/M06 A3037 RMK A01 T01411060  RH  024%=      5-min Rain = 0
KOD1 131811Z 06005KT 14/M06 A3037 RMK A01 T01421058  RH  025%=      5-min Rain = 0
KOD1 131812Z 05004KT 14/M06 A3037 RMK A01 T01441057  RH  024%=      5-min Rain = 0
KOD1 131813Z 02006G12KT 15/M06 A3037 RMK A01 T01461056  RH  024%=      5-min Rain = 0
KOD1 131814Z 02012KT 15/M06 A3037 RMK A01 T01471058  RH  024%=      5-min Rain = 0
KOD1 131815Z 02008KT 15/M06 A3037 RMK A01 T01471058  RH  024%=      5-min Rain = 0
KOD1 131816Z 02005KT 15/M06 A3037 RMK A01 T01451059  RH  024%=      5-min Rain = 0
KOD1 131817Z 01005KT 14/M06 A3037 RMK A01 T01431059  RH  024%=      5-min Rain = 0
KOD1 131818Z 36005G11KT 14/M06 A3037 RMK A01 T01421056  RH  025%=      5-min Rain = 0
KOD1 131819Z 35008KT 14/M06 A3037 RMK A01 T01431059  RH  024%=      5-min Rain = 0
KOD1 131820Z 35005KT 14/M06 A3037 RMK A01 T01421056  RH  025%=      5-min Rain = 0
KOD1 131821Z 00006KT 14/M06 A3037 RMK A01 T01421057  RH  025%=      5-min Rain = 0
KOD1 131822Z 35006KT 14/M06 A3037 RMK A01 T01421058  RH  025%=      5-min Rain = 0
KOD1 131823Z 35004KT 14/M06 A3037 RMK A01 T01411059  RH  024%=      5-min Rain = 0
KOD1 131824Z 04004KT 14/M06 A3037 RMK A01 T01401058  RH  025%=      5-min Rain = 0
KOD1 131825Z 06007KT 14/M06 A3037 RMK A01 T01411061  RH  024%=      5-min Rain = 0
KOD1 131826Z 05006KT 14/M06 A3037 RMK A01 T01411059  RH  025%=      5-min Rain = 0
KOD1 131827Z 04004KT 14/M06 A3037 RMK A01 T01421059  RH  024%=      5-min Rain = 0
KOD1 131828Z 04001KT 14/M06 A3036 RMK A01 T01431058  RH  024%=      5-min Rain = 0
KOD1 131829Z 01002G7KT 14/M06 A3036 RMK A01 T01431058  RH  024%=      5-min Rain = 0
KOD1 131830Z 01006KT 14/M06 A3036 RMK A01 T01441055  RH  025%=      5-min Rain = 0
KOD1 131831Z 01008KT 15/M06 A3036 RMK A01 T01471055  RH  024%=      5-min Rain = 0
KOD1 131832Z 00007KT 15/M06 A3036 RMK A01 T01481059  RH  023%=      5-min Rain = 0
KOD1 131833Z 34006KT 15/M06 A3036 RMK A01 T01471058  RH  024%=      5-min Rain = 0
KOD1 131834Z 33005KT 15/M06 A3036 RMK A01 T01461056  RH  024%=      5-min Rain = 0
KOD1 131835Z 35007KT 15/M05 A3036 RMK A01 T01471054  RH  024%=      5-min Rain = 0
KOD1 131836Z 01009KT 15/M06 A3036 RMK A01 T01491055  RH  024%=      5-min Rain = 0
KOD1 131837Z 01006KT 15/M06 A3036 RMK A01 T01501058  RH  023%=      5-min Rain = 0
KOD1 131838Z 00006KT 15/M06 A3036 RMK A01 T01491056  RH  024%=      5-min Rain = 0
KOD1 131839Z 04007KT 15/M06 A3036 RMK A01 T01491057  RH  024%=      5-min Rain = 0
KOD1 131840Z 04006KT 15/M06 A3036 RMK A01 T01501060  RH  023%=      5-min Rain = 0
KOD1 131841Z 03005KT 15/M06 A3036 RMK A01 T01491061  RH  023%=      5-min Rain = 0
KOD1 131842Z 05006KT 15/M06 A3036 RMK A01 T01481058  RH  024%=      5-min Rain = 0
KOD1 131843Z 05006KT 15/M06 A3036 RMK A01 T01501060  RH  023%=      5-min Rain = 0
KOD1 131844Z 09003KT 15/M06 A3035 RMK A01 T01491061  RH  023%=      5-min Rain = 0
KOD1 131845Z 06002KT 15/M06 A3035 RMK A01 T01491060  RH  023%=      5-min Rain = 0
KOD1 131846Z 01006KT 15/M06 A3035 RMK A01 T01501057  RH  023%=      5-min Rain = 0
KOD1 131847Z 36007G12KT 15/M06 A3035 RMK A01 T01521055  RH  024%=      5-min Rain = 0
KOD1 131848Z 00009KT 15/M06 A3035 RMK A01 T01541058  RH  023%=      5-min Rain = 0
KOD1 131849Z 35007KT 15/M06 A3035 RMK A01 T01541060  RH  022%=      5-min Rain = 0
KOD1 131850Z 31003KT 15/M06 A3035 RMK A01 T01531057  RH  023%=      5-min Rain = 0
KOD1 131851Z 33004KT 15/M05 A3035 RMK A01 T01541054  RH  023%=      5-min Rain = 0
KOD1 131852Z 04005KT 16/M06 A3035 RMK A01 T01551058  RH  023%=      5-min Rain = 0
KOD1 131853Z 03004KT 16/M06 A3035 RMK A01 T01551062  RH  022%=      5-min Rain = 0
KOD1 131854Z 01008KT 16/M06 A3035 RMK A01 T01561057  RH  023%=      5-min Rain = 0
KOD1 131855Z 36007KT 16/M06 A3035 RMK A01 T01571060  RH  022%=      5-min Rain = 0
KOD1 131856Z 01006KT 16/M06 A3035 RMK A01 T01561060  RH  022%=      5-min Rain = 0
KOD1 131857Z 35006KT 15/M06 A3035 RMK A01 T01541060  RH  022%=      5-min Rain = 0
KOD1 131858Z 35005KT 15/M06 A3035 RMK A01 T01531058  RH  023%=      5-min Rain = 0
KOD1 131859Z 04008KT 16/M06 A3035 RMK A01 T01551060  RH  022%=      5-min Rain = 0
KOD1 131900Z 04011KT 16/M06 A3035 RMK A01 T01571063  RH  021%=      5-min Rain = 0
KOD1 131901Z 05010KT 16/M06 A3035 RMK A01 T01571064  RH  021%=      5-min Rain = 0
KOD1 131902Z 04008KT 16/M06 A3035 RMK A01 T01561064  RH  021%=      5-min Rain = 0
KOD1 131903Z 04006KT 16/M06 A3035 RMK A01 T01551061  RH  022%=      5-min Rain = 0
KOD1 131904Z 03011KT 16/M06 A3035 RMK A01 T01561062  RH  022%=      5-min Rain = 0
KOD1 131905Z 03009KT 16/M06 A3035 RMK A01 T01561062  RH  022%=      5-min Rain = 0
KOD1 131906Z 05010KT 16/M06 A3035 RMK A01 T01561063  RH  021%=      5-min Rain = 0
KOD1 131907Z 04009KT 16/M06 A3035 RMK A01 T01561064  RH  021%=      5-min Rain = 0
KOD1 131908Z 03009G14KT 16/M06 A3035 RMK A01 T01571064  RH  021%=      5-min Rain = 0
KOD1 131909Z 03009KT 16/M06 A3035 RMK A01 T01581064  RH  021%=      5-min Rain = 0
KOD1 131910Z 04008KT 16/M07 A3035 RMK A01 T01581066  RH  021%=      5-min Rain = 0
KOD1 131911Z 03008KT 16/M07 A3034 RMK A01 T01571066  RH  021%=      5-min Rain = 0
KOD1 131912Z 01009KT 16/M07 A3034 RMK A01 T01561067  RH  021%=      5-min Rain = 0
KOD1 131913Z 01007KT 16/M07 A3034 RMK A01 T01551066  RH  021%=      5-min Rain = 0
KOD1 131914Z 02005KT 15/M07 A3034 RMK A01 T01541067  RH  021%=      5-min Rain = 0
KOD1 131915Z 03005KT 15/M07 A3034 RMK A01 T01521067  RH  021%=      5-min Rain = 0
KOD1 131916Z 04005KT 15/M07 A3034 RMK A01 T01531065  RH  022%=      5-min Rain = 0
KOD1 131917Z 06004KT 15/M07 A3034 RMK A01 T01531067  RH  021%=      5-min Rain = 0
KOD1 131918Z 07006KT 15/M07 A3034 RMK A01 T01541066  RH  021%=      5-min Rain = 0
KOD1 131919Z 04007KT 16/M07 A3034 RMK A01 T01551065  RH  021%=      5-min Rain = 0
KOD1 131920Z 03010KT 16/M07 A3034 RMK A01 T01571067  RH  021%=      5-min Rain = 0
KOD1 131921Z 02004KT 16/M07 A3034 RMK A01 T01571068  RH  021%=      5-min Rain = 0
KOD1 131922Z 01009KT 16/M06 A3034 RMK A01 T01561064  RH  022%=      5-min Rain = 0
KOD1 131923Z 02012KT 16/M07 A3034 RMK A01 T01581065  RH  021%=      5-min Rain = 0
KOD1 131924Z 01009KT 16/M07 A3034 RMK A01 T01581066  RH  021%=      5-min Rain = 0
KOD1 131925Z 01009KT 16/M07 A3034 RMK A01 T01571066  RH  021%=      5-min Rain = 0
KOD1 131926Z 02008KT 16/M06 A3034 RMK A01 T01561063  RH  022%=      5-min Rain = 0
KOD1 131927Z 02006KT 16/M07 A3034 RMK A01 T01551066  RH  021%=      5-min Rain = 0
KOD1 131928Z 00006KT 15/M07 A3034 RMK A01 T01541066  RH  021%=      5-min Rain = 0
KOD1 131929Z 36003KT 15/M06 A3034 RMK A01 T01531062  RH  022%=      5-min Rain = 0
KOD1 131930Z 01010KT 16/M06 A3034 RMK A01 T01551061  RH  022%=      5-min Rain = 0
KOD1 131931Z 01010KT 16/M06 A3034 RMK A01 T01551063  RH  022%=      5-min Rain = 0
KOD1 131932Z 01006KT 15/M06 A3033 RMK A01 T01541063  RH  022%=      5-min Rain = 0
KOD1 131933Z 00005KT 15/M06 A3033 RMK A01 T01541061  RH  022%=      5-min Rain = 0
KOD1 131934Z 35008KT 15/M06 A3033 RMK A01 T01541061  RH  022%=      5-min Rain = 0
KOD1 131935Z 01010KT 16/M06 A3033 RMK A01 T01551061  RH  022%=      5-min Rain = 0
KOD1 131936Z 04010KT 16/M06 A3033 RMK A01 T01571064  RH  021%=      5-min Rain = 0
KOD1 131937Z 01009KT 16/M06 A3033 RMK A01 T01571064  RH  021%=      5-min Rain = 0
KOD1 131938Z 02011KT 16/M06 A3033 RMK A01 T01581062  RH  021%=      5-min Rain = 0
KOD1 131939Z 00013KT 16/M06 A3033 RMK A01 T01591064  RH  021%=      5-min Rain = 0
KOD1 131940Z 35011KT 16/M06 A3033 RMK A01 T01591062  RH  021%=      5-min Rain = 0
KOD1 131941Z 01011KT 16/M06 A3033 RMK A01 T01591061  RH  022%=      5-min Rain = 0
KOD1 131942Z 02011KT 16/M06 A3033 RMK A01 T01621060  RH  021%=      5-min Rain = 0
KOD1 131943Z 03010KT 16/M06 A3033 RMK A01 T01631062  RH  021%=      5-min Rain = 0
KOD1 131944Z 02009KT 16/M06 A3033 RMK A01 T01641061  RH  021%=      5-min Rain = 0
KOD1 131945Z 01011KT 16/M06 A3033 RMK A01 T01641061  RH  021%=      5-min Rain = 0
KOD1 131946Z 03009KT 16/M06 A3033 RMK A01 T01621063  RH  021%=      5-min Rain = 0
KOD1 131947Z 03007KT 16/M06 A3033 RMK A01 T01601063  RH  021%=      5-min Rain = 0
KOD1 131948Z 02005KT 16/M06 A3033 RMK A01 T01581061  RH  022%=      5-min Rain = 0
KOD1 131949Z 00006KT 16/M06 A3033 RMK A01 T01581060  RH  022%=      5-min Rain = 0
KOD1 131950Z 03012KT 16/M06 A3033 RMK A01 T01591061  RH  021%=      5-min Rain = 0
KOD1 131951Z 04014KT 16/M06 A3033 RMK A01 T01601061  RH  021%=      5-min Rain = 0
KOD1 131952Z 04012KT 16/M06 A3033 RMK A01 T01611064  RH  021%=      5-min Rain = 0
KOD1 131953Z 05011KT 16/M06 A3033 RMK A01 T01601063  RH  021%=      5-min Rain = 0
KOD1 131954Z 04008KT 16/M06 A3033 RMK A01 T01581063  RH  021%=      5-min Rain = 0
KOD1 131955Z 04008KT 16/M06 A3033 RMK A01 T01581061  RH  022%=      5-min Rain = 0
KOD1 131956Z 05011KT 16/M06 A3033 RMK A01 T01621058  RH  022%=      5-min Rain = 0
KOD1 131957Z 04009KT 16/M06 A3033 RMK A01 T01641062  RH  021%=      5-min Rain = 0
KOD1 131958Z 05007KT 16/M06 A3033 RMK A01 T01631060  RH  021%=      5-min Rain = 0
KOD1 131959Z 06006KT 16/M06 A3033 RMK A01 T01621061  RH  021%=      5-min Rain = 0
KOD1 132000Z 04005KT 16/M06 A3033 RMK A01 T01601061  RH  021%=      5-min Rain = 0
KOD1 132001Z 00008KT 16/M06 A3033 RMK A01 T01601059  RH  022%=      5-min Rain = 0
KOD1 132002Z 02010KT 16/M06 A3033 RMK A01 T01601055  RH  022%=      5-min Rain = 0
KOD1 132003Z 03010KT 16/M06 A3033 RMK A01 T01621060  RH  021%=      5-min Rain = 0
KOD1 132004Z 03008KT 16/M06 A3033 RMK A01 T01601059  RH  022%=      5-min Rain = 0
KOD1 132005Z 04010KT 16/M06 A3033 RMK A01 T01601058  RH  022%=      5-min Rain = 0
KOD1 132006Z 04008KT 16/M06 A3033 RMK A01 T01601060  RH  022%=      5-min Rain = 0
KOD1 132007Z 03007KT 16/M06 A3033 RMK A01 T01581058  RH  022%=      5-min Rain = 0
KOD1 132008Z 01007KT 16/M06 A3033 RMK A01 T01591058  RH  022%=      5-min Rain = 0
KOD1 132009Z 02005KT 16/M06 A3032 RMK A01 T01581058  RH  022%=      5-min Rain = 0
KOD1 132010Z 01006KT 16/M06 A3032 RMK A01 T01591057  RH  022%=      5-min Rain = 0
KOD1 132011Z 03004G12KT 16/M06 A3032 RMK A01 T01591055  RH  022%=      5-min Rain = 0
KOD1 132012Z 04009KT 16/M06 A3032 RMK A01 T01631057  RH  022%=      5-min Rain = 0
KOD1 132013Z 04011KT 17/M06 A3032 RMK A01 T01651059  RH  021%=      5-min Rain = 0
KOD1 132014Z 04005KT 17/M06 A3032 RMK A01 T01661060  RH  021%=      5-min Rain = 0
KOD1 132015Z 03012KT 17/M06 A3032 RMK A01 T01661060  RH  021%=      5-min Rain = 0
KOD1 132016Z 02011KT 17/M06 A3032 RMK A01 T01651060  RH  021%=      5-min Rain = 0
KOD1 132017Z 01008KT 16/M06 A3032 RMK A01 T01641061  RH  021%=      5-min Rain = 0
KOD1 132018Z 04012KT 16/M06 A3032 RMK A01 T01641061  RH  021%=      5-min Rain = 0
KOD1 132019Z 03010KT 16/M06 A3032 RMK A01 T01641063  RH  020%=      5-min Rain = 0
KOD1 132020Z 03011KT 16/M06 A3032 RMK A01 T01631062  RH  021%=      5-min Rain = 0
KOD1 132021Z 02009KT 16/M06 A3032 RMK A01 T01611062  RH  021%=      5-min Rain = 0
KOD1 132022Z 02009KT 16/M06 A3032 RMK A01 T01601059  RH  022%=      5-min Rain = 0
KOD1 132023Z 03012KT 16/M06 A3032 RMK A01 T01611064  RH  021%=      5-min Rain = 0
KOD1 132024Z 02012KT 16/M06 A3032 RMK A01 T01611064  RH  021%=      5-min Rain = 0
KOD1 132025Z 02013KT 16/M06 A3032 RMK A01 T01601064  RH  021%=      5-min Rain = 0
KOD1 132026Z 04014KT 16/M06 A3032 RMK A01 T01621063  RH  021%=      5-min Rain = 0
KOD1 132027Z 05011KT 16/M06 A3032 RMK A01 T01641064  RH  020%=      5-min Rain = 0
KOD1 132028Z 05011KT 16/M06 A3032 RMK A01 T01641064  RH  020%=      5-min Rain = 0
KOD1 132029Z 04011KT 16/M07 A3032 RMK A01 T01641065  RH  020%=      5-min Rain = 0
KOD1 132030Z 02011KT 17/M06 A3032 RMK A01 T01651063  RH  020%=      5-min Rain = 0
KOD1 132031Z 03011KT 17/M07 A3032 RMK A01 T01651065  RH  020%=      5-min Rain = 0
KOD1 132032Z 03010KT 16/M07 A3032 RMK A01 T01631065  RH  020%=      5-min Rain = 0
KOD1 132033Z 04011KT 16/M07 A3032 RMK A01 T01621065  RH  020%=      5-min Rain = 0
KOD1 132034Z 04011KT 16/M07 A3032 RMK A01 T01621066  RH  020%=      5-min Rain = 0
KOD1 132035Z 04008KT 16/M07 A3032 RMK A01 T01601065  RH  021%=      5-min Rain = 0
KOD1 132036Z 03007KT 16/M06 A3032 RMK A01 T01601064  RH  021%=      5-min Rain = 0
KOD1 132037Z 03006KT 16/M07 A3032 RMK A01 T01611066  RH  020%=      5-min Rain = 0
KOD1 132038Z 05011KT 16/M07 A3032 RMK A01 T01611065  RH  021%=      5-min Rain = 0
KOD1 132039Z 01012KT 16/M06 A3032 RMK A01 T01641062  RH  021%=      5-min Rain = 0
KOD1 132040Z 36012KT 17/M07 A3032 RMK A01 T01661065  RH  020%=      5-min Rain = 0
KOD1 132041Z 02010KT 16/M06 A3032 RMK A01 T01641064  RH  020%=      5-min Rain = 0
KOD1 132042Z 04010KT 16/M07 A3032 RMK A01 T01641066  RH  020%=      5-min Rain = 0
KOD1 132043Z 04008KT 16/M07 A3032 RMK A01 T01641067  RH  020%=      5-min Rain = 0
KOD1 132044Z 06005KT 16/M07 A3032 RMK A01 T01621067  RH  020%=      5-min Rain = 0
KOD1 132045Z 04005KT 16/M07 A3031 RMK A01 T01601067  RH  020%=      5-min Rain = 0
KOD1 132046Z 04006KT 16/M07 A3031 RMK A01 T01601065  RH  021%=      5-min Rain = 0
KOD1 132047Z 05007KT 16/M06 A3031 RMK A01 T01611064  RH  021%=      5-min Rain = 0
KOD1 132048Z 06010G15KT 16/M06 A3031 RMK A01 T01631064  RH  020%=      5-min Rain = 0
KOD1 132049Z 03012KT 16/M06 A3031 RMK A01 T01641062  RH  021%=      5-min Rain = 0
KOD1 132050Z 00011KT 17/M06 A3031 RMK A01 T01661060  RH  021%=      5-min Rain = 0
KOD1 132051Z 01010KT 17/M06 A3031 RMK A01 T01671061  RH  020%=      5-min Rain = 0
KOD1 132052Z 02009KT 17/M06 A3031 RMK A01 T01661062  RH  020%=      5-min Rain = 0
KOD1 132053Z 02008KT 16/M07 A3031 RMK A01 T01641065  RH  020%=      5-min Rain = 0
KOD1 132054Z 03010KT 16/M06 A3031 RMK A01 T01641063  RH  021%=      5-min Rain = 0
KOD1 132055Z 03008KT 17/M06 A3031 RMK A01 T01651063  RH  020%=      5-min Rain = 0
KOD1 132056Z 04009KT 17/M06 A3031 RMK A01 T01661064  RH  020%=      5-min Rain = 0
KOD1 132057Z 03008KT 17/M06 A3031 RMK A01 T01671064  RH  020%=      5-min Rain = 0
KOD1 132058Z 02008KT 17/M07 A3031 RMK A01 T01671065  RH  020%=      5-min Rain = 0
KOD1 132059Z 02007KT 17/M06 A3031 RMK A01 T01661064  RH  020%=      5-min Rain = 0
KOD1 132100Z 03003KT 17/M07 A3031 RMK A01 T01651066  RH  020%=      5-min Rain = 0
KOD1 132101Z 02005KT 16/M07 A3031 RMK A01 T01631065  RH  020%=      5-min Rain = 0
KOD1 132102Z 03010G15KT 16/M06 A3031 RMK A01 T01641062  RH  021%=      5-min Rain = 0
KOD1 132103Z 03010KT 17/M06 A3031 RMK A01 T01671063  RH  020%=      5-min Rain = 0
KOD1 132104Z 02009KT 17/M06 A3031 RMK A01 T01691063  RH  020%=      5-min Rain = 0
KOD1 132105Z 01014KT 17/M06 A3031 RMK A01 T01701062  RH  020%=      5-min Rain = 0
KOD1 132106Z 36013KT 17/M06 A3031 RMK A01 T01701063  RH  020%=      5-min Rain = 0
KOD1 132107Z 02010KT 17/M06 A3031 RMK A01 T01691062  RH  020%=      5-min Rain = 0
KOD1 132108Z 00010KT 17/M06 A3031 RMK A01 T01711061  RH  020%=      5-min Rain = 0
KOD1 132109Z 34010KT 17/M07 A303 RMK A01 T01711065  RH  019%=      5-min Rain = 0
KOD1 132110Z 01009KT 17/M06 A303 RMK A01 T01691064  RH  020%=      5-min Rain = 0
KOD1 132111Z 04011KT 17/M07 A303 RMK A01 T01681066  RH  020%=      5-min Rain = 0
KOD1 132112Z 02011KT 17/M07 A3031 RMK A01 T01681067  RH  019%=      5-min Rain = 0
KOD1 132113Z 01009KT 17/M07 A303 RMK A01 T01671066  RH  020%=      5-min Rain = 0
KOD1 132114Z 01007KT 17/M07 A303 RMK A01 T01661065  RH  020%=      5-min Rain = 0
KOD1 132115Z 03005KT 17/M07 A303 RMK A01 T01651067  RH  020%=      5-min Rain = 0
KOD1 132116Z 01006KT 16/M06 A303 RMK A01 T01641064  RH  020%=      5-min Rain = 0
KOD1 132117Z 02013KT 17/M07 A303 RMK A01 T01661067  RH  020%=      5-min Rain = 0
KOD1 132118Z 03013KT 17/M07 A303 RMK A01 T01671068  RH  019%=      5-min Rain = 0
KOD1 132119Z 03012KT 17/M07 A303 RMK A01 T01661069  RH  019%=      5-min Rain = 0
KOD1 132120Z 02011KT 17/M07 A303 RMK A01 T01661068  RH  019%=      5-min Rain = 0
KOD1 132121Z 02011KT 17/M07 A303 RMK A01 T01661067  RH  020%=      5-min Rain = 0
KOD1 132122Z 01014KT 17/M07 A303 RMK A01 T01671066  RH  020%=      5-min Rain = 0
KOD1 132123Z 03010KT 17/M07 A303 RMK A01 T01671067  RH  019%=      5-min Rain = 0
KOD1 132124Z 03011G16KT 17/M07 A303 RMK A01 T01671069  RH  019%=      5-min Rain = 0
KOD1 132125Z 03013KT 17/M07 A303 RMK A01 T01681069  RH  019%=      5-min Rain = 0
KOD1 132126Z 03013KT 17/M07 A303 RMK A01 T01671072  RH  019%=      5-min Rain = 0
KOD1 132127Z 02012KT 17/M07 A303 RMK A01 T01651069  RH  019%=      5-min Rain = 0
KOD1 132128Z 00011KT 17/M07 A303 RMK A01 T01651069  RH  019%=      5-min Rain = 0
KOD1 132129Z 00009KT 16/M07 A303 RMK A01 T01631068  RH  020%=      5-min Rain = 0
KOD1 132130Z 03012KT 16/M07 A303 RMK A01 T01631069  RH  020%=      5-min Rain = 0
KOD1 132131Z 03011KT 16/M07 A303 RMK A01 T01641072  RH  019%=      5-min Rain = 0
KOD1 132132Z 02009KT 16/M07 A303 RMK A01 T01631071  RH  019%=      5-min Rain = 0
KOD1 132133Z 03013KT 16/M07 A303 RMK A01 T01641070  RH  019%=      5-min Rain = 0
KOD1 132134Z 03013KT 17/M07 A303 RMK A01 T01651072  RH  019%=      5-min Rain = 0
KOD1 132135Z 04011KT 17/M07 A303 RMK A01 T01651072  RH  019%=      5-min Rain = 0
KOD1 132136Z 04011KT 16/M07 A303 RMK A01 T01641072  RH  019%=      5-min Rain = 0
KOD1 132137Z 03010KT 16/M07 A303 RMK A01 T01641072  RH  019%=      5-min Rain = 0
KOD1 132138Z 03013KT 16/M07 A303 RMK A01 T01631071  RH  019%=      5-min Rain = 0
KOD1 132139Z 03009KT 16/M07 A303 RMK A01 T01631070  RH  019%=      5-min Rain = 0
KOD1 132140Z 02011KT 17/M07 A303 RMK A01 T01651068  RH  020%=      5-min Rain = 0
KOD1 132141Z 02012KT 17/M07 A303 RMK A01 T01661070  RH  019%=      5-min Rain = 0
KOD1 132142Z 01011KT 17/M07 A303 RMK A01 T01661069  RH  019%=      5-min Rain = 0
KOD1 132143Z 02008KT 16/M07 A303 RMK A01 T01641068  RH  020%=      5-min Rain = 0
KOD1 132144Z 04008KT 16/M07 A303 RMK A01 T01631071  RH  019%=      5-min Rain = 0
KOD1 132145Z 05009KT 16/M07 A303 RMK A01 T01631071  RH  019%=      5-min Rain = 0
KOD1 132146Z 05009KT 16/M07 A303 RMK A01 T01621073  RH  019%=      5-min Rain = 0
KOD1 132147Z 04011KT 16/M07 A303 RMK A01 T01611071  RH  020%=      5-min Rain = 0
KOD1 132148Z 04011KT 16/M07 A303 RMK A01 T01601071  RH  020%=      5-min Rain = 0
KOD1 132149Z 03011KT 16/M07 A303 RMK A01 T01611071  RH  020%=      5-min Rain = 0
KOD1 132150Z 04011KT 16/M07 A303 RMK A01 T01601071  RH  020%=      5-min Rain = 0
KOD1 132151Z 03009KT 16/M07 A303 RMK A01 T01601070  RH  020%=      5-min Rain = 0
KOD1 132152Z 02010G15KT 16/M07 A303 RMK A01 T01601068  RH  020%=      5-min Rain = 0
KOD1 132153Z 02012KT 16/M07 A303 RMK A01 T01611068  RH  020%=      5-min Rain = 0
KOD1 132154Z 02010KT 16/M07 A303 RMK A01 T01611069  RH  020%=      5-min Rain = 0
KOD1 132155Z 03011KT 16/M07 A303 RMK A01 T01601069  RH  020%=      5-min Rain = 0
KOD1 132156Z 02011KT 16/M07 A303 RMK A01 T01591070  RH  020%=      5-min Rain = 0
KOD1 132157Z 03008KT 16/M07 A303 RMK A01 T01571069  RH  020%=      5-min Rain = 0
KOD1 132158Z 04007KT 16/M07 A303 RMK A01 T01571069  RH  021%=      5-min Rain = 0
KOD1 132159Z 04006KT 16/M07 A303 RMK A01 T01561070  RH  020%=      5-min Rain = 0
KOD1 132200Z 03009KT 16/M07 A303 RMK A01 T01561069  RH  021%=      5-min Rain = 0
KOD1 132201Z 04010G15KT 16/M07 A303 RMK A01 T01551070  RH  021%=      5-min Rain = 0
KOD1 132202Z 04013KT 15/M07 A303 RMK A01 T01541068  RH  021%=      5-min Rain = 0
KOD1 132203Z 03012KT 15/M07 A303 RMK A01 T01541068  RH  021%=      5-min Rain = 0
KOD1 132204Z 03011KT 15/M07 A303 RMK A01 T01541068  RH  021%=      5-min Rain = 0
KOD1 132205Z 02009KT 16/M07 A303 RMK A01 T01551067  RH  021%=      5-min Rain = 0
KOD1 132206Z 02009KT 16/M07 A303 RMK A01 T01551067  RH  021%=      5-min Rain = 0
KOD1 132207Z 02008KT 16/M06 A303 RMK A01 T01561063  RH  022%=      5-min Rain = 0
KOD1 132208Z 00009G14KT 16/M06 A303 RMK A01 T01581062  RH  022%=      5-min Rain = 0
KOD1 132209Z 03011KT 16/M06 A303 RMK A01 T01601062  RH  021%=      5-min Rain = 0
KOD1 132210Z 03015KT 16/M06 A303 RMK A01 T01621064  RH  021%=      5-min Rain = 0
KOD1 132211Z 03014KT 16/M06 A303 RMK A01 T01621064  RH  021%=      5-min Rain = 0
KOD1 132212Z 04011KT 16/M06 A303 RMK A01 T01641063  RH  021%=      5-min Rain = 0
KOD1 132213Z 03013KT 16/M07 A303 RMK A01 T01641065  RH  020%=      5-min Rain = 0
KOD1 132214Z 02012KT 16/M07 A303 RMK A01 T01631065  RH  020%=      5-min Rain = 0
KOD1 132215Z 03010KT 16/M06 A303 RMK A01 T01621063  RH  021%=      5-min Rain = 0
KOD1 132216Z 01010KT 16/M06 A303 RMK A01 T01631061  RH  021%=      5-min Rain = 0
KOD1 132217Z 02011KT 17/M06 A303 RMK A01 T01651062  RH  020%=      5-min Rain = 0
KOD1 132218Z 03011KT 17/M07 A303 RMK A01 T01651065  RH  020%=      5-min Rain = 0
KOD1 132219Z 01010KT 16/M06 A303 RMK A01 T01631063  RH  021%=      5-min Rain = 0
KOD1 132220Z 02011KT 16/M06 A303 RMK A01 T01621061  RH  021%=      5-min Rain = 0
KOD1 132221Z 03012KT 16/M06 A303 RMK A01 T01631064  RH  021%=      5-min Rain = 0
KOD1 132222Z 03011KT 16/M06 A303 RMK A01 T01611064  RH  021%=      5-min Rain = 0
KOD1 132223Z 01012KT 16/M06 A303 RMK A01 T01611063  RH  021%=      5-min Rain = 0
KOD1 132224Z 02009KT 16/M06 A303 RMK A01 T01601063  RH  021%=      5-min Rain = 0
KOD1 132225Z 02011KT 16/M06 A303 RMK A01 T01601063  RH  021%=      5-min Rain = 0
KOD1 132226Z 02009KT 16/M06 A303 RMK A01 T01601064  RH  021%=      5-min Rain = 0
KOD1 132227Z 01011KT 16/M06 A303 RMK A01 T01611062  RH  021%=      5-min Rain = 0
KOD1 132228Z 02010KT 16/M06 A303 RMK A01 T01611063  RH  021%=      5-min Rain = 0
KOD1 132229Z 02009KT 16/M06 A303 RMK A01 T01611063  RH  021%=      5-min Rain = 0
KOD1 132230Z 01011KT 16/M06 A303 RMK A01 T01601064  RH  021%=      5-min Rain = 0
KOD1 132231Z 01011KT 16/M06 A303 RMK A01 T01581063  RH  021%=      5-min Rain = 0
KOD1 132232Z 02011KT 16/M06 A303 RMK A01 T01561064  RH  021%=      5-min Rain = 0
KOD1 132233Z 03013KT 15/M07 A303 RMK A01 T01541066  RH  021%=      5-min Rain = 0
KOD1 132234Z 04012KT 15/M07 A303 RMK A01 T01521066  RH  022%=      5-min Rain = 0
KOD1 132235Z 04009KT 15/M07 A303 RMK A01 T01511065  RH  022%=      5-min Rain = 0
KOD1 132236Z 05010KT 15/M07 A303 RMK A01 T01511066  RH  022%=      5-min Rain = 0
KOD1 132237Z 04009KT 15/M07 A303 RMK A01 T01501065  RH  022%=      5-min Rain = 0
KOD1 132238Z 02011KT 15/M06 A303 RMK A01 T01501064  RH  022%=      5-min Rain = 0
KOD1 132239Z 02011KT 15/M06 A303 RMK A01 T01501064  RH  022%=      5-min Rain = 0
KOD1 132240Z 03013KT 15/M07 A303 RMK A01 T01491065  RH  022%=      5-min Rain = 0
KOD1 132241Z 03012KT 15/M07 A303 RMK A01 T01491065  RH  022%=      5-min Rain = 0
KOD1 132242Z 02010KT 15/M07 A303 RMK A01 T01491065  RH  022%=      5-min Rain = 0
KOD1 132243Z 03011KT 15/M07 A303 RMK A01 T01491065  RH  022%=      5-min Rain = 0
KOD1 132244Z 03010KT 15/M07 A303 RMK A01 T01491065  RH  022%=      5-min Rain = 0
KOD1 132245Z 03010KT 15/M07 A303 RMK A01 T01491065  RH  022%=      5-min Rain = 0
KOD1 132246Z 03010KT 15/M07 A303 RMK A01 T01491065  RH  022%=      5-min Rain = 0
KOD1 132247Z 03011KT 15/M06 A303 RMK A01 T01491064  RH  022%=      5-min Rain = 0
KOD1 132248Z 03010KT 15/M06 A303 RMK A01 T01491064  RH  022%=      5-min Rain = 0
KOD1 132249Z 03008KT 15/M06 A303 RMK A01 T01491064  RH  022%=      5-min Rain = 0
KOD1 132250Z 03008KT 15/M07 A303 RMK A01 T01491065  RH  022%=      5-min Rain = 0
KOD1 132251Z 04009KT 15/M06 A303 RMK A01 T01491064  RH  022%=      5-min Rain = 0
KOD1 132252Z 04011KT 15/M06 A303 RMK A01 T01491064  RH  022%=      5-min Rain = 0
KOD1 132253Z 04010KT 15/M07 A303 RMK A01 T01481065  RH  022%=      5-min Rain = 0
KOD1 132254Z 03010KT 15/M06 A303 RMK A01 T01481064  RH  023%=      5-min Rain = 0
KOD1 132255Z 03013KT 15/M06 A303 RMK A01 T01491064  RH  022%=      5-min Rain = 0
KOD1 132256Z 03013KT 15/M07 A303 RMK A01 T01491066  RH  022%=      5-min Rain = 0
KOD1 132257Z 03013KT 15/M07 A303 RMK A01 T01481066  RH  022%=      5-min Rain = 0
KOD1 132258Z 02011KT 15/M06 A303 RMK A01 T01481064  RH  022%=      5-min Rain = 0
KOD1 132259Z 02013KT 15/M07 A303 RMK A01 T01491066  RH  022%=      5-min Rain = 0
KOD1 132300Z 02010KT 15/M07 A303 RMK A01 T01481066  RH  022%=      5-min Rain = 0
KOD1 132301Z 02008KT 15/M07 A303 RMK A01 T01481065  RH  022%=      5-min Rain = 0
KOD1 132302Z 04010KT 15/M07 A303 RMK A01 T01481065  RH  022%=      5-min Rain = 0
KOD1 132303Z 04009KT 15/M07 A303 RMK A01 T01481065  RH  022%=      5-min Rain = 0
KOD1 132304Z 04008KT 15/M07 A303 RMK A01 T01481065  RH  022%=      5-min Rain = 0
KOD1 132305Z 04006KT 15/M06 A303 RMK A01 T01491064  RH  022%=      5-min Rain = 0
KOD1 132306Z 04008KT 15/M06 A303 RMK A01 T01501063  RH  022%=      5-min Rain = 0
KOD1 132307Z 04010KT 15/M06 A303 RMK A01 T01511064  RH  022%=      5-min Rain = 0
KOD1 132308Z 04009KT 15/M07 A303 RMK A01 T01511066  RH  022%=      5-min Rain = 0
KOD1 132309Z 04008KT 15/M07 A303 RMK A01 T01491066  RH  022%=      5-min Rain = 0
KOD1 132310Z 03009KT 15/M07 A303 RMK A01 T01481066  RH  022%=      5-min Rain = 0
KOD1 132311Z 04008KT 15/M07 A303 RMK A01 T01471066  RH  022%=      5-min Rain = 0
KOD1 132312Z 03009KT 15/M07 A303 RMK A01 T01471065  RH  023%=      5-min Rain = 0
KOD1 132313Z 03009KT 15/M07 A303 RMK A01 T01461065  RH  023%=      5-min Rain = 0
KOD1 132314Z 04007KT 15/M06 A303 RMK A01 T01461064  RH  023%=      5-min Rain = 0
KOD1 132315Z 04008KT 15/M06 A303 RMK A01 T01471064  RH  023%=      5-min Rain = 0
KOD1 132316Z 05006KT 15/M06 A303 RMK A01 T01481063  RH  023%=      5-min Rain = 0
KOD1 132317Z 06007KT 15/M06 A303 RMK A01 T01491064  RH  022%=      5-min Rain = 0
KOD1 132318Z 02008KT 15/M06 A303 RMK A01 T01501064  RH  022%=      5-min Rain = 0
KOD1 132319Z 03007KT 15/M07 A303 RMK A01 T01491065  RH  022%=      5-min Rain = 0
KOD1 132320Z 03007KT 15/M07 A303 RMK A01 T01481065  RH  022%=      5-min Rain = 0
KOD1 132321Z 03009KT 15/M07 A303 RMK A01 T01471065  RH  023%=      5-min Rain = 0
KOD1 132322Z 03007KT 15/M06 A303 RMK A01 T01471064  RH  023%=      5-min Rain = 0
KOD1 132323Z 03007KT 15/M06 A303 RMK A01 T01471064  RH  023%=      5-min Rain = 0
KOD1 132324Z 03007KT 15/M06 A303 RMK A01 T01471063  RH  023%=      5-min Rain = 0
KOD1 132325Z 04008KT 15/M06 A303 RMK A01 T01471063  RH  023%=      5-min Rain = 0
KOD1 132326Z 05008KT 15/M06 A303 RMK A01 T01461064  RH  023%=      5-min Rain = 0
KOD1 132327Z 04008KT 15/M06 A303 RMK A01 T01451063  RH  023%=      5-min Rain = 0
KOD1 132328Z 05008KT 15/M06 A303 RMK A01 T01451061  RH  023%=      5-min Rain = 0
KOD1 132329Z 05008KT 15/M06 A303 RMK A01 T01451061  RH  023%=      5-min Rain = 0
KOD1 132330Z 05008KT 15/M06 A303 RMK A01 T01461061  RH  023%=      5-min Rain = 0
KOD1 132331Z 04006KT 15/M06 A303 RMK A01 T01471061  RH  023%=      5-min Rain = 0
KOD1 132332Z 04007KT 15/M06 A303 RMK A01 T01481061  RH  023%=      5-min Rain = 0
KOD1 132333Z 04007KT 15/M06 A303 RMK A01 T01491061  RH  023%=      5-min Rain = 0
KOD1 132334Z 05008KT 15/M06 A303 RMK A01 T01501062  RH  023%=      5-min Rain = 0
KOD1 132335Z 05009KT 15/M06 A303 RMK A01 T01501061  RH  023%=      5-min Rain = 0
KOD1 132336Z 05010KT 15/M06 A303 RMK A01 T01501060  RH  023%=      5-min Rain = 0
KOD1 132337Z 04009KT 15/M06 A303 RMK A01 T01501059  RH  023%=      5-min Rain = 0
KOD1 132338Z 04009KT 15/M06 A303 RMK A01 T01511059  RH  023%=      5-min Rain = 0
KOD1 132339Z 05009KT 15/M06 A303 RMK A01 T01511061  RH  023%=      5-min Rain = 0
KOD1 132340Z 04009KT 15/M06 A303 RMK A01 T01511060  RH  023%=      5-min Rain = 0
KOD1 132341Z 05008KT 15/M06 A303 RMK A01 T01511060  RH  023%=      5-min Rain = 0
KOD1 132342Z 04009KT 15/M06 A303 RMK A01 T01511061  RH  023%=      5-min Rain = 0
KOD1 132343Z 04009KT 15/M06 A303 RMK A01 T01501062  RH  023%=      5-min Rain = 0
KOD1 132344Z 05008KT 15/M06 A303 RMK A01 T01501061  RH  023%=      5-min Rain = 0
KOD1 132345Z 05008KT 15/M06 A303 RMK A01 T01501062  RH  023%=      5-min Rain = 0
KOD1 132346Z 06007KT 15/M06 A303 RMK A01 T01491061  RH  023%=      5-min Rain = 0
KOD1 132347Z 05007KT 15/M06 A303 RMK A01 T01491061  RH  023%=      5-min Rain = 0
KOD1 132348Z 05007KT 15/M06 A303 RMK A01 T01491061  RH  023%=      5-min Rain = 0
KOD1 132349Z 06006KT 15/M06 A303 RMK A01 T01491061  RH  023%=      5-min Rain = 0
KOD1 132350Z 06007KT 15/M06 A303 RMK A01 T01491061  RH  023%=      5-min Rain = 0
KOD1 132351Z 06008KT 15/M06 A3029 RMK A01 T01481061  RH  023%=      5-min Rain = 0
KOD1 132352Z 05010KT 15/M06 A303 RMK A01 T01481061  RH  023%=      5-min Rain = 0
KOD1 132353Z 05008KT 15/M06 A3029 RMK A01 T01471061  RH  023%=      5-min Rain = 0
KOD1 132354Z 05009KT 15/M06 A3029 RMK A01 T01471061  RH  023%=      5-min Rain = 0
KOD1 132355Z 05009KT 15/M06 A3029 RMK A01 T01461062  RH  023%=      5-min Rain = 0
KOD1 132356Z 04009KT 15/M06 A3029 RMK A01 T01461062  RH  023%=      5-min Rain = 0
KOD1 132357Z 03009KT 15/M06 A3029 RMK A01 T01451062  RH  023%=      5-min Rain = 0
KOD1 132358Z 03008KT 14/M06 A3029 RMK A01 T01441062  RH  023%=      5-min Rain = 0
KOD1 132359Z 04008KT 14/M06 A3029 RMK A01 T01441063  RH  023%=      5-min Rain = 0
KOD1 140000Z 05007KT 14/M06 A3029 RMK A01 T01431062  RH  024%=      5-min Rain = 0
KOD1 140001Z 04008KT 14/M06 A3029 RMK A01 T01421061  RH  024%=      5-min Rain = 0
KOD1 140002Z 04008KT 14/M06 A303 RMK A01 T01411061  RH  024%=      5-min Rain = 0
KOD1 140003Z 03008KT 14/M06 A303 RMK A01 T01401061  RH  024%=      5-min Rain = 0
KOD1 140004Z 04009KT 14/M06 A303 RMK A01 T01391061  RH  024%=      5-min Rain = 0
KOD1 140005Z 04008KT 14/M06 A303 RMK A01 T01391060  RH  025%=      5-min Rain = 0
KOD1 140006Z 03009KT 14/M06 A303 RMK A01 T01381062  RH  024%=      5-min Rain = 0
KOD1 140007Z 04008KT 14/M06 A303 RMK A01 T01371062  RH  024%=      5-min Rain = 0
KOD1 140008Z 04007KT 14/M06 A303 RMK A01 T01371062  RH  025%=      5-min Rain = 0
KOD1 140009Z 05006KT 14/M06 A303 RMK A01 T01361061  RH  025%=      5-min Rain = 0
KOD1 140010Z 05007KT 13/M06 A303 RMK A01 T01341060  RH  025%=      5-min Rain = 0
KOD1 140011Z 04006KT 13/M06 A303 RMK A01 T01331060  RH  026%=      5-min Rain = 0
KOD1 140012Z 05007KT 13/M06 A303 RMK A01 T01321060  RH  026%=      5-min Rain = 0
KOD1 140013Z 06008KT 13/M06 A3029 RMK A01 T01311060  RH  026%=      5-min Rain = 0
KOD1 140014Z 06007KT 13/M06 A3029 RMK A01 T01301060  RH  026%=      5-min Rain = 0
KOD1 140015Z 06007KT 13/M06 A3029 RMK A01 T01291060  RH  026%=      5-min Rain = 0
KOD1 140016Z 06007KT 13/M06 A3029 RMK A01 T01281060  RH  027%=      5-min Rain = 0
KOD1 140017Z 05007KT 13/M06 A3029 RMK A01 T01271060  RH  027%=      5-min Rain = 0
KOD1 140018Z 06006KT 13/M06 A3029 RMK A01 T01261061  RH  027%=      5-min Rain = 0
KOD1 140019Z 06007KT 12/M06 A3029 RMK A01 T01241061  RH  027%=      5-min Rain = 0
KOD1 140020Z 06007KT 12/M06 A3029 RMK A01 T01231061  RH  027%=      5-min Rain = 0
KOD1 140021Z 06006KT 12/M06 A3029 RMK A01 T01221061  RH  027%=      5-min Rain = 0
KOD1 140022Z 06007KT 12/M06 A3029 RMK A01 T01211061  RH  027%=      5-min Rain = 0
KOD1 140023Z 06007KT 12/M06 A3029 RMK A01 T01211061  RH  028%=      5-min Rain = 0
KOD1 140024Z 06007KT 12/M06 A3029 RMK A01 T01201061  RH  028%=      5-min Rain = 0
KOD1 140025Z 06006KT 12/M06 A303 RMK A01 T01201061  RH  028%=      5-min Rain = 0
KOD1 140026Z 06006KT 12/M06 A303 RMK A01 T01191060  RH  028%=      5-min Rain = 0
KOD1 140027Z 06006KT 12/M06 A303 RMK A01 T01171060  RH  028%=      5-min Rain = 0
KOD1 140028Z 05006KT 12/M06 A303 RMK A01 T01161060  RH  029%=      5-min Rain = 0
KOD1 140029Z 05006KT 11/M06 A303 RMK A01 T01141060  RH  029%=      5-min Rain = 0
KOD1 140030Z 05006KT 11/M06 A303 RMK A01 T01131060  RH  029%=      5-min Rain = 0
KOD1 140031Z 05006KT 11/M06 A303 RMK A01 T01111060  RH  030%=      5-min Rain = 0
KOD1 140032Z 05006KT 11/M06 A303 RMK A01 T01101059  RH  030%=      5-min Rain = 0
KOD1 140033Z 04006KT 11/M06 A303 RMK A01 T01091059  RH  030%=      5-min Rain = 0
KOD1 140034Z 04006KT 11/M06 A303 RMK A01 T01081059  RH  031%=      5-min Rain = 0
KOD1 140035Z 04006KT 11/M06 A303 RMK A01 T01071059  RH  031%=      5-min Rain = 0
KOD1 140036Z 04005KT 11/M06 A303 RMK A01 T01061059  RH  031%=      5-min Rain = 0
KOD1 140037Z 04005KT 10/M06 A303 RMK A01 T01041060  RH  031%=      5-min Rain = 0
KOD1 140038Z 04005KT 10/M06 A303 RMK A01 T01031060  RH  031%=      5-min Rain = 0
KOD1 140039Z 04006KT 10/M06 A303 RMK A01 T01021060  RH  032%=      5-min Rain = 0
KOD1 140040Z 04006KT 10/M06 A303 RMK A01 T01011059  RH  032%=      5-min Rain = 0
KOD1 140041Z 04006KT 10/M06 A303 RMK A01 T01001060  RH  032%=      5-min Rain = 0
KOD1 140042Z 03005KT 10/M06 A303 RMK A01 T01001061  RH  032%=      5-min Rain = 0
KOD1 140043Z 03005KT 10/M06 A303 RMK A01 T00991062  RH  032%=      5-min Rain = 0
KOD1 140044Z 03005KT 10/M06 A303 RMK A01 T00981061  RH  032%=      5-min Rain = 0
KOD1 140045Z 03005KT 10/M06 A303 RMK A01 T00971061  RH  032%=      5-min Rain = 0
KOD1 140046Z 02006KT 10/M06 A303 RMK A01 T00971061  RH  032%=      5-min Rain = 0
KOD1 140047Z 02006KT 10/M06 A303 RMK A01 T00971060  RH  032%=      5-min Rain = 0
KOD1 140048Z 03006KT 10/M06 A303 RMK A01 T00971060  RH  032%=      5-min Rain = 0
KOD1 140049Z 03006KT 10/M06 A303 RMK A01 T00971060  RH  033%=      5-min Rain = 0
KOD1 140050Z 03006KT 10/M06 A303 RMK A01 T00971060  RH  033%=      5-min Rain = 0
KOD1 140051Z 03005KT 10/M06 A303 RMK A01 T00971060  RH  033%=      5-min Rain = 0
KOD1 140052Z 03005KT 10/M06 A303 RMK A01 T00961060  RH  033%=      5-min Rain = 0
KOD1 140053Z 03005KT 10/M06 A303 RMK A01 T00961060  RH  033%=      5-min Rain = 0
KOD1 140054Z 03005KT 10/M06 A303 RMK A01 T00951061  RH  033%=      5-min Rain = 0
KOD1 140055Z 03005KT 10/M06 A303 RMK A01 T00951061  RH  033%=      5-min Rain = 0
KOD1 140056Z 04005KT 09/M06 A303 RMK A01 T00941060  RH  033%=      5-min Rain = 0
KOD1 140057Z 04005KT 09/M06 A303 RMK A01 T00941059  RH  033%=      5-min Rain = 0
KOD1 140058Z 04005KT 09/M06 A303 RMK A01 T00941059  RH  034%=      5-min Rain = 0
KOD1 140059Z 04005KT 09/M06 A303 RMK A01 T00941059  RH  033%=      5-min Rain = 0
KOD1 140100Z 04005KT 09/M06 A303 RMK A01 T00931060  RH  033%=      5-min Rain = 0
KOD1 140101Z 04006KT 09/M06 A303 RMK A01 T00921059  RH  034%=      5-min Rain = 0
KOD1 140102Z 04006KT 09/M06 A303 RMK A01 T00911058  RH  034%=      5-min Rain = 0
KOD1 140103Z 04006KT 09/M06 A303 RMK A01 T00901059  RH  034%=      5-min Rain = 0
KOD1 140104Z 04006KT 09/M06 A303 RMK A01 T00891060  RH  034%=      5-min Rain = 0
KOD1 140105Z 04005KT 09/M06 A303 RMK A01 T00881061  RH  034%=      5-min Rain = 0
KOD1 140106Z 04005KT 09/M06 A303 RMK A01 T00861061  RH  035%=      5-min Rain = 0
KOD1 140107Z 03005KT 09/M06 A303 RMK A01 T00851060  RH  035%=      5-min Rain = 0
KOD1 140108Z 03005KT 08/M06 A3031 RMK A01 T00841059  RH  036%=      5-min Rain = 0
KOD1 140109Z 03005KT 08/M06 A3031 RMK A01 T00831059  RH  036%=      5-min Rain = 0
KOD1 140110Z 03005KT 08/M06 A3031 RMK A01 T00831059  RH  036%=      5-min Rain = 0
KOD1 140111Z 03005KT 08/M06 A3031 RMK A01 T00821059  RH  036%=      5-min Rain = 0
KOD1 140112Z 03006KT 08/M06 A3031 RMK A01 T00821058  RH  037%=      5-min Rain = 0
KOD1 140113Z 03006KT 08/M06 A3031 RMK A01 T00811057  RH  037%=      5-min Rain = 0
KOD1 140114Z 03006KT 08/M06 A3031 RMK A01 T00811057  RH  037%=      5-min Rain = 0
KOD1 140115Z 03006KT 08/M06 A303 RMK A01 T00811056  RH  037%=      5-min Rain = 0
KOD1 140116Z 03006KT 08/M06 A303 RMK A01 T00811056  RH  037%=      5-min Rain = 0
KOD1 140117Z 04006KT 08/M06 A303 RMK A01 T00811056  RH  038%=      5-min Rain = 0
KOD1 140118Z 04006KT 08/M06 A303 RMK A01 T00801055  RH  038%=      5-min Rain = 0
KOD1 140119Z 04006KT 08/M05 A303 RMK A01 T00791054  RH  038%=      5-min Rain = 0
KOD1 140120Z 04006KT 08/M06 A303 RMK A01 T00791055  RH  038%=      5-min Rain = 0
KOD1 140121Z 04006KT 08/M06 A303 RMK A01 T00781056  RH  038%=      5-min Rain = 0
KOD1 140122Z 04006KT 08/M06 A303 RMK A01 T00781056  RH  038%=      5-min Rain = 0
KOD1 140123Z 04006KT 08/M06 A303 RMK A01 T00781057  RH  038%=      5-min Rain = 0
KOD1 140124Z 04006KT 08/M06 A303 RMK A01 T00781057  RH  038%=      5-min Rain = 0
KOD1 140125Z 04006KT 08/M06 A303 RMK A01 T00771057  RH  038%=      5-min Rain = 0
KOD1 140126Z 04006KT 08/M06 A303 RMK A01 T00771057  RH  038%=      5-min Rain = 0
KOD1 140127Z 04007KT 08/M06 A303 RMK A01 T00761057  RH  038%=      5-min Rain = 0
KOD1 140128Z 04007KT 08/M06 A303 RMK A01 T00761056  RH  039%=      5-min Rain = 0
KOD1 140129Z 04008KT 08/M06 A303 RMK A01 T00761056  RH  039%=      5-min Rain = 0
KOD1 140130Z 04008KT 08/M06 A303 RMK A01 T00751056  RH  039%=      5-min Rain = 0
KOD1 140131Z 04007KT 07/M06 A3031 RMK A01 T00741056  RH  039%=      5-min Rain = 0
KOD1 140132Z 04007KT 07/M05 A3031 RMK A01 T00731054  RH  040%=      5-min Rain = 0
KOD1 140133Z 04007KT 07/M05 A3031 RMK A01 T00741052  RH  040%=      5-min Rain = 0
KOD1 140134Z 04007KT 07/M05 A3031 RMK A01 T00741051  RH  041%=      5-min Rain = 0
KOD1 140135Z 04007KT 08/M05 A3031 RMK A01 T00761051  RH  040%=      5-min Rain = 0
KOD1 140136Z 04007KT 08/M05 A3031 RMK A01 T00771052  RH  040%=      5-min Rain = 0
KOD1 140137Z 04007KT 08/M05 A3031 RMK A01 T00781052  RH  039%=      5-min Rain = 0
KOD1 140138Z 04007KT 08/M05 A3031 RMK A01 T00801053  RH  039%=      5-min Rain = 0
KOD1 140139Z 04007KT 08/M05 A3031 RMK A01 T00811054  RH  038%=      5-min Rain = 0
KOD1 140140Z 04007KT 08/M05 A3031 RMK A01 T00811054  RH  038%=      5-min Rain = 0
KOD1 140141Z 04007KT 08/M05 A3031 RMK A01 T00821054  RH  038%=      5-min Rain = 0
KOD1 140142Z 04007KT 08/M05 A3031 RMK A01 T00821054  RH  038%=      5-min Rain = 0
KOD1 140143Z 04007KT 08/M05 A3031 RMK A01 T00821054  RH  038%=      5-min Rain = 0
KOD1 140144Z 04007KT 08/M05 A3031 RMK A01 T00821054  RH  038%=      5-min Rain = 0
KOD1 140145Z 04007KT 08/M05 A3031 RMK A01 T00821054  RH  038%=      5-min Rain = 0
KOD1 140146Z 04007KT 08/M05 A3031 RMK A01 T00821054  RH  038%=      5-min Rain = 0
KOD1 140147Z 04007KT 08/M05 A3031 RMK A01 T00821054  RH  038%=      5-min Rain = 0
KOD1 140148Z 04008KT 08/M05 A3031 RMK A01 T00821054  RH  038%=      5-min Rain = 0
KOD1 140149Z 04007KT 08/M05 A3031 RMK A01 T00821054  RH  038%=      5-min Rain = 0
KOD1 140150Z 04007KT 08/M05 A3031 RMK A01 T00821054  RH  038%=      5-min Rain = 0
KOD1 140151Z 04007KT 08/M05 A3031 RMK A01 T00821054  RH  038%=      5-min Rain = 0
KOD1 140152Z 05007KT 08/M05 A3031 RMK A01 T00811054  RH  038%=      5-min Rain = 0
KOD1 140153Z 05006KT 08/M06 A3031 RMK A01 T00801055  RH  038%=      5-min Rain = 0
KOD1 140154Z 05006KT 08/M06 A3031 RMK A01 T00791055  RH  038%=      5-min Rain = 0
KOD1 140155Z 05006KT 08/M06 A3031 RMK A01 T00781056  RH  038%=      5-min Rain = 0
KOD1 140156Z 05007KT 08/M06 A3031 RMK A01 T00771055  RH  039%=      5-min Rain = 0
KOD1 140157Z 05007KT 08/M06 A3031 RMK A01 T00771055  RH  039%=      5-min Rain = 0
KOD1 140158Z 05007KT 08/M05 A3031 RMK A01 T00771054  RH  039%=      5-min Rain = 0
KOD1 140159Z 06007KT 08/M05 A3031 RMK A01 T00771054  RH  039%=      5-min Rain = 0
KOD1 140200Z 05008KT 08/M05 A3031 RMK A01 T00771054  RH  039%=      5-min Rain = 0
KOD1 140201Z 05007KT 08/M05 A3031 RMK A01 T00771054  RH  039%=      5-min Rain = 0
KOD1 140202Z 05007KT 08/M05 A3031 RMK A01 T00761054  RH  039%=      5-min Rain = 0
KOD1 140203Z 06007KT 08/M05 A3031 RMK A01 T00761054  RH  039%=      5-min Rain = 0
KOD1 140204Z 06007KT 08/M05 A3031 RMK A01 T00751054  RH  039%=      5-min Rain = 0
KOD1 140205Z 06007KT 08/M05 A3031 RMK A01 T00751054  RH  040%=      5-min Rain = 0
KOD1 140206Z 06007KT 07/M05 A3031 RMK A01 T00741054  RH  040%=      5-min Rain = 0
KOD1 140207Z 06007KT 07/M06 A3031 RMK A01 T00741055  RH  039%=      5-min Rain = 0
KOD1 140208Z 06007KT 07/M06 A3031 RMK A01 T00741056  RH  039%=      5-min Rain = 0
KOD1 140209Z 06007KT 07/M06 A3031 RMK A01 T00741056  RH  039%=      5-min Rain = 0
KOD1 140210Z 06007KT 07/M06 A3031 RMK A01 T00741056  RH  039%=      5-min Rain = 0
KOD1 140211Z 06007KT 07/M06 A3031 RMK A01 T00741056  RH  039%=      5-min Rain = 0
KOD1 140212Z 06007KT 08/M06 A3031 RMK A01 T00751056  RH  039%=      5-min Rain = 0
KOD1 140213Z 06007KT 08/M06 A3031 RMK A01 T00751056  RH  039%=      5-min Rain = 0
KOD1 140214Z 06007KT 08/M06 A3031 RMK A01 T00751056  RH  039%=      5-min Rain = 0
KOD1 140215Z 06007KT 07/M06 A3031 RMK A01 T00741056  RH  039%=      5-min Rain = 0
KOD1 140216Z 06007KT 07/M06 A3032 RMK A01 T00741056  RH  039%=      5-min Rain = 0
KOD1 140217Z 06007KT 07/M06 A3032 RMK A01 T00731055  RH  040%=      5-min Rain = 0
KOD1 140218Z 07006KT 07/M06 A3032 RMK A01 T00731055  RH  040%=      5-min Rain = 0
KOD1 140219Z 07006KT 07/M06 A3032 RMK A01 T00731056  RH  039%=      5-min Rain = 0
KOD1 140220Z 07006KT 07/M06 A3032 RMK A01 T00741056  RH  039%=      5-min Rain = 0
KOD1 140221Z 07005KT 08/M06 A3032 RMK A01 T00751056  RH  039%=      5-min Rain = 0
KOD1 140222Z 07006KT 08/M06 A3032 RMK A01 T00761056  RH  039%=      5-min Rain = 0
KOD1 140223Z 06005KT 08/M06 A3032 RMK A01 T00771057  RH  038%=      5-min Rain = 0
KOD1 140224Z 07006KT 08/M06 A3032 RMK A01 T00791058  RH  037%=      5-min Rain = 0
KOD1 140225Z 07005KT 08/M06 A3032 RMK A01 T00811058  RH  037%=      5-min Rain = 0
KOD1 140226Z 06006KT 08/M06 A3032 RMK A01 T00821058  RH  036%=      5-min Rain = 0
KOD1 140227Z 07006KT 08/M06 A3032 RMK A01 T00831059  RH  036%=      5-min Rain = 0
KOD1 140228Z 07005KT 08/M06 A3032 RMK A01 T00841060  RH  035%=      5-min Rain = 0
KOD1 140229Z 07006KT 09/M06 A3032 RMK A01 T00851060  RH  035%=      5-min Rain = 0
KOD1 140230Z 07006KT 09/M06 A3032 RMK A01 T00871060  RH  035%=      5-min Rain = 0
KOD1 140231Z 07006KT 09/M06 A3032 RMK A01 T00881061  RH  034%=      5-min Rain = 0
KOD1 140232Z 09007KT 09/M06 A3032 RMK A01 T00891059  RH  035%=      5-min Rain = 0
KOD1 140233Z 08005KT 09/M06 A3032 RMK A01 T00881058  RH  035%=      5-min Rain = 0
KOD1 140234Z 09007KT 09/M06 A3032 RMK A01 T00861058  RH  035%=      5-min Rain = 0
KOD1 140235Z 09006KT 08/M06 A3032 RMK A01 T00841058  RH  036%=      5-min Rain = 0
KOD1 140236Z 09006KT 08/M06 A3032 RMK A01 T00821058  RH  036%=      5-min Rain = 0
KOD1 140237Z 10007KT 08/M06 A3032 RMK A01 T00811058  RH  037%=      5-min Rain = 0
KOD1 140238Z 09007KT 08/M06 A3032 RMK A01 T00801056  RH  038%=      5-min Rain = 0
KOD1 140239Z 09007KT 08/M06 A3032 RMK A01 T00811055  RH  038%=      5-min Rain = 0
KOD1 140240Z 09007KT 08/M06 A3032 RMK A01 T00811055  RH  038%=      5-min Rain = 0
KOD1 140241Z 09006KT 08/M06 A3032 RMK A01 T00811055  RH  038%=      5-min Rain = 0
KOD1 140242Z 09006KT 08/M06 A3032 RMK A01 T00811055  RH  038%=      5-min Rain = 0
KOD1 140243Z 09006KT 08/M06 A3032 RMK A01 T00801055  RH  038%=      5-min Rain = 0
KOD1 140244Z 09006KT 08/M05 A3033 RMK A01 T00801054  RH  038%=      5-min Rain = 0
KOD1 140245Z 09006KT 08/M05 A3033 RMK A01 T00791054  RH  038%=      5-min Rain = 0
KOD1 140246Z 09006KT 08/M05 A3033 RMK A01 T00781054  RH  039%=      5-min Rain = 0
KOD1 140247Z 09006KT 08/M05 A3033 RMK A01 T00781054  RH  039%=      5-min Rain = 0
KOD1 140248Z 09006KT 08/M05 A3033 RMK A01 T00771054  RH  039%=      5-min Rain = 0
KOD1 140249Z 09006KT 08/M05 A3033 RMK A01 T00761054  RH  039%=      5-min Rain = 0
KOD1 140250Z 09006KT 08/M05 A3033 RMK A01 T00751054  RH  039%=      5-min Rain = 0
KOD1 140251Z 09006KT 08/M05 A3033 RMK A01 T00751054  RH  040%=      5-min Rain = 0
KOD1 140252Z 09006KT 07/M05 A3033 RMK A01 T00741054  RH  040%=      5-min Rain = 0
KOD1 140253Z 09006KT 07/M05 A3033 RMK A01 T00741054  RH  040%=      5-min Rain = 0
KOD1 140254Z 09006KT 07/M05 A3033 RMK A01 T00731054  RH  040%=      5-min Rain = 0
KOD1 140255Z 09006KT 07/M05 A3033 RMK A01 T00731054  RH  040%=      5-min Rain = 0
KOD1 140256Z 09006KT 07/M05 A3033 RMK A01 T00731054  RH  040%=      5-min Rain = 0
KOD1 140257Z 09006KT 07/M05 A3033 RMK A01 T00731054  RH  040%=      5-min Rain = 0
KOD1 140258Z 09006KT 07/M05 A3033 RMK A01 T00731054  RH  040%=      5-min Rain = 0
KOD1 140259Z 09006KT 07/M05 A3033 RMK A01 T00741054  RH  040%=      5-min Rain = 0
KOD1 140300Z 09006KT 07/M05 A3033 RMK A01 T00741054  RH  040%=      5-min Rain = 0
KOD1 140301Z 09006KT 07/M05 A3033 RMK A01 T00731054  RH  040%=      5-min Rain = 0
KOD1 140302Z 09006KT 07/M05 A3033 RMK A01 T00731054  RH  040%=      5-min Rain = 0
KOD1 140303Z 09006KT 07/M05 A3033 RMK A01 T00731054  RH  040%=      5-min Rain = 0
KOD1 140304Z 09006KT 07/M05 A3033 RMK A01 T00731054  RH  040%=      5-min Rain = 0
KOD1 140305Z 09005KT 07/M05 A3033 RMK A01 T00721054  RH  040%=      5-min Rain = 0
KOD1 140306Z 09005KT 07/M05 A3033 RMK A01 T00721054  RH  041%=      5-min Rain = 0
KOD1 140307Z 09005KT 07/M05 A3033 RMK A01 T00711054  RH  041%=      5-min Rain = 0
KOD1 140308Z 09005KT 07/M05 A3033 RMK A01 T00711054  RH  041%=      5-min Rain = 0
KOD1 140309Z 09005KT 07/M05 A3033 RMK A01 T00701054  RH  041%=      5-min Rain = 0
KOD1 140310Z 09005KT 07/M05 A3033 RMK A01 T00701054  RH  041%=      5-min Rain = 0
KOD1 140311Z 09004KT 07/M05 A3033 RMK A01 T00691054  RH  041%=      5-min Rain = 0
KOD1 140312Z 09004KT 07/M05 A3033 RMK A01 T00691053  RH  041%=      5-min Rain = 0
KOD1 140313Z 09004KT 07/M05 A3033 RMK A01 T00691054  RH  041%=      5-min Rain = 0
KOD1 140314Z 09004KT 07/M05 A3033 RMK A01 T00691054  RH  041%=      5-min Rain = 0
KOD1 140315Z 08004KT 07/M05 A3033 RMK A01 T00691054  RH  041%=      5-min Rain = 0
KOD1 140316Z 08004KT 07/M05 A3033 RMK A01 T00691054  RH  041%=      5-min Rain = 0
KOD1 140317Z 08004KT 07/M05 A3033 RMK A01 T00701054  RH  041%=      5-min Rain = 0
KOD1 140318Z 09004KT 07/M06 A3034 RMK A01 T00701055  RH  041%=      5-min Rain = 0
KOD1 140319Z 09004KT 07/M06 A3034 RMK A01 T00701056  RH  040%=      5-min Rain = 0
KOD1 140320Z 09004KT 07/M06 A3034 RMK A01 T00701056  RH  040%=      5-min Rain = 0
KOD1 140321Z 09004KT 07/M06 A3034 RMK A01 T00701056  RH  040%=      5-min Rain = 0
KOD1 140322Z 10004KT 07/M06 A3034 RMK A01 T00701055  RH  041%=      5-min Rain = 0
KOD1 140323Z 10004KT 07/M05 A3034 RMK A01 T00701054  RH  041%=      5-min Rain = 0
KOD1 140324Z 10004KT 07/M05 A3034 RMK A01 T00701053  RH  041%=      5-min Rain = 0
KOD1 140325Z 09004KT 07/M05 A3034 RMK A01 T00701053  RH  041%=      5-min Rain = 0
KOD1 140326Z 10004KT 07/M05 A3034 RMK A01 T00701053  RH  041%=      5-min Rain = 0
KOD1 140327Z 10004KT 07/M05 A3034 RMK A01 T00701053  RH  041%=      5-min Rain = 0
KOD1 140328Z 09005KT 07/M05 A3034 RMK A01 T00701053  RH  041%=      5-min Rain = 0
KOD1 140329Z 09005KT 07/M05 A3034 RMK A01 T00701053  RH  041%=      5-min Rain = 0
KOD1 140330Z 09005KT 07/M05 A3034 RMK A01 T00701053  RH  041%=      5-min Rain = 0
KOD1 140331Z 09005KT 07/M05 A3034 RMK A01 T00701053  RH  041%=      5-min Rain = 0
KOD1 140332Z 09005KT 07/M05 A3034 RMK A01 T00701053  RH  041%=      5-min Rain = 0
KOD1 140333Z 09005KT 07/M05 A3034 RMK A01 T00701053  RH  041%=      5-min Rain = 0
KOD1 140334Z 09005KT 07/M05 A3034 RMK A01 T00701054  RH  041%=      5-min Rain = 0
KOD1 140335Z 09005KT 07/M05 A3034 RMK A01 T00711054  RH  041%=      5-min Rain = 0
KOD1 140336Z 09005KT 07/M05 A3034 RMK A01 T00711054  RH  041%=      5-min Rain = 0
KOD1 140337Z 09005KT 07/M05 A3034 RMK A01 T00711053  RH  041%=      5-min Rain = 0
KOD1 140338Z 09005KT 07/M05 A3034 RMK A01 T00711053  RH  041%=      5-min Rain = 0
KOD1 140339Z 09004KT 07/M05 A3034 RMK A01 T00711053  RH  041%=      5-min Rain = 0
KOD1 140340Z 09005KT 07/M05 A3034 RMK A01 T00711053  RH  041%=      5-min Rain = 0
KOD1 140341Z 09005KT 07/M05 A3034 RMK A01 T00721053  RH  041%=      5-min Rain = 0
KOD1 140342Z 10005KT 07/M05 A3034 RMK A01 T00721053  RH  041%=      5-min Rain = 0
KOD1 140343Z 10005KT 07/M05 A3034 RMK A01 T00721053  RH  040%=      5-min Rain = 0
KOD1 140344Z 10005KT 07/M05 A3034 RMK A01 T00721054  RH  040%=      5-min Rain = 0
KOD1 140345Z 10005KT 07/M05 A3034 RMK A01 T00721054  RH  040%=      5-min Rain = 0
KOD1 140346Z 10005KT 07/M05 A3034 RMK A01 T00721054  RH  040%=      5-min Rain = 0
KOD1 140347Z 10005KT 07/M05 A3034 RMK A01 T00721054  RH  040%=      5-min Rain = 0
KOD1 140348Z 10005KT 07/M05 A3034 RMK A01 T00721053  RH  040%=      5-min Rain = 0
KOD1 140349Z 10005KT 07/M05 A3034 RMK A01 T00721053  RH  041%=      5-min Rain = 0
KOD1 140350Z 10005KT 07/M05 A3034 RMK A01 T00711053  RH  041%=      5-min Rain = 0
KOD1 140351Z 10005KT 07/M05 A3034 RMK A01 T00711052  RH  041%=      5-min Rain = 0
KOD1 140352Z 10006KT 07/M05 A3034 RMK A01 T00711052  RH  041%=      5-min Rain = 0
KOD1 140353Z 10005KT 07/M05 A3034 RMK A01 T00701053  RH  041%=      5-min Rain = 0
KOD1 140354Z 10006KT 07/M05 A3034 RMK A01 T00701053  RH  041%=      5-min Rain = 0
KOD1 140355Z 10006KT 07/M05 A3034 RMK A01 T00701053  RH  041%=      5-min Rain = 0
KOD1 140356Z 10006KT 07/M05 A3034 RMK A01 T00701053  RH  041%=      5-min Rain = 0
KOD1 140357Z 10006KT 07/M05 A3034 RMK A01 T00701053  RH  041%=      5-min Rain = 0
KOD1 140358Z 10006KT 07/M05 A3034 RMK A01 T00701053  RH  041%=      5-min Rain = 0
KOD1 140359Z 10006KT 07/M05 A3034 RMK A01 T00701053  RH  041%=      5-min Rain = 0
KOD1 140400Z 10006KT 07/M05 A3034 RMK A01 T00691053  RH  041%=      5-min Rain = 0
KOD1 140401Z 10007KT 07/M05 A3034 RMK A01 T00691053  RH  042%=      5-min Rain = 0
KOD1 140402Z 10006KT 07/M05 A3034 RMK A01 T00691052  RH  042%=      5-min Rain = 0
KOD1 140403Z 10006KT 07/M05 A3034 RMK A01 T00681052  RH  042%=      5-min Rain = 0
KOD1 140404Z 10006KT 07/M05 A3034 RMK A01 T00681053  RH  042%=      5-min Rain = 0
KOD1 140405Z 10006KT 07/M05 A3034 RMK A01 T00681053  RH  042%=      5-min Rain = 0
KOD1 140406Z 10007KT 07/M05 A3034 RMK A01 T00681053  RH  042%=      5-min Rain = 0
KOD1 140407Z 10007KT 07/M05 A3034 RMK A01 T00691053  RH  042%=      5-min Rain = 0
KOD1 140408Z 11007KT 07/M05 A3034 RMK A01 T00691053  RH  041%=      5-min Rain = 0
KOD1 140409Z 11006KT 07/M05 A3034 RMK A01 T00701053  RH  041%=      5-min Rain = 0
KOD1 140410Z 11006KT 07/M05 A3034 RMK A01 T00701053  RH  041%=      5-min Rain = 0
KOD1 140411Z 11006KT 07/M05 A3034 RMK A01 T00701053  RH  041%=      5-min Rain = 0
KOD1 140412Z 11006KT 07/M05 A3034 RMK A01 T00701054  RH  041%=      5-min Rain = 0
KOD1 140413Z 11006KT 07/M05 A3034 RMK A01 T00691054  RH  041%=      5-min Rain = 0
KOD1 140414Z 11006KT 07/M05 A3034 RMK A01 T00691054  RH  041%=      5-min Rain = 0
KOD1 140415Z 11006KT 07/M05 A3034 RMK A01 T00681054  RH  041%=      5-min Rain = 0
KOD1 140416Z 11006KT 07/M05 A3034 RMK A01 T00681054  RH  042%=      5-min Rain = 0
KOD1 140417Z 11006KT 07/M05 A3034 RMK A01 T00671054  RH  042%=      5-min Rain = 0
KOD1 140418Z 11006KT 07/M05 A3034 RMK A01 T00671054  RH  042%=      5-min Rain = 0
KOD1 140419Z 11006KT 07/M05 A3034 RMK A01 T00661054  RH  042%=      5-min Rain = 0
KOD1 140420Z 10006KT 07/M05 A3034 RMK A01 T00651054  RH  042%=      5-min Rain = 0
KOD1 140421Z 10006KT 06/M05 A3034 RMK A01 T00641054  RH  043%=      5-min Rain = 0
KOD1 140422Z 10006KT 06/M05 A3034 RMK A01 T00631054  RH  043%=      5-min Rain = 0
KOD1 140423Z 10006KT 06/M05 A3034 RMK A01 T00631054  RH  043%=      5-min Rain = 0
KOD1 140424Z 10006KT 06/M05 A3034 RMK A01 T00621054  RH  043%=      5-min Rain = 0
KOD1 140425Z 11007KT 06/M05 A3034 RMK A01 T00621053  RH  043%=      5-min Rain = 0
KOD1 140426Z 11007KT 06/M05 A3034 RMK A01 T00631053  RH  043%=      5-min Rain = 0
KOD1 140427Z 11007KT 06/M05 A3034 RMK A01 T00631053  RH  043%=      5-min Rain = 0
KOD1 140428Z 10007KT 06/M05 A3034 RMK A01 T00631052  RH  043%=      5-min Rain = 0
KOD1 140429Z 11007KT 06/M05 A3034 RMK A01 T00631052  RH  043%=      5-min Rain = 0
KOD1 140430Z 10006KT 06/M05 A3034 RMK A01 T00641052  RH  043%=      5-min Rain = 0
KOD1 140431Z 10006KT 06/M05 A3034 RMK A01 T00641052  RH  043%=      5-min Rain = 0
KOD1 140432Z 10006KT 06/M05 A3034 RMK A01 T00641052  RH  043%=      5-min Rain = 0
KOD1 140433Z 10006KT 06/M05 A3034 RMK A01 T00641052  RH  043%=      5-min Rain = 0
KOD1 140434Z 10006KT 06/M05 A3034 RMK A01 T00641052  RH  043%=      5-min Rain = 0
KOD1 140435Z 10006KT 07/M05 A3034 RMK A01 T00651052  RH  043%=      5-min Rain = 0
KOD1 140436Z 09006KT 07/M05 A3034 RMK A01 T00651052  RH  043%=      5-min Rain = 0
KOD1 140437Z 09006KT 07/M05 A3034 RMK A01 T00661053  RH  043%=      5-min Rain = 0
KOD1 140438Z 09006KT 07/M05 A3034 RMK A01 T00661052  RH  042%=      5-min Rain = 0
KOD1 140439Z 09006KT 07/M05 A3034 RMK A01 T00661052  RH  042%=      5-min Rain = 0
KOD1 140440Z 09006KT 07/M05 A3034 RMK A01 T00661052  RH  043%=      5-min Rain = 0
KOD1 140441Z 10006KT 07/M05 A3034 RMK A01 T00661052  RH  043%=      5-min Rain = 0
KOD1 140442Z 09006KT 07/M05 A3034 RMK A01 T00651052  RH  043%=      5-min Rain = 0
KOD1 140443Z 10006KT 07/M05 A3034 RMK A01 T00651052  RH  043%=      5-min Rain = 0
KOD1 140444Z 10006KT 06/M05 A3034 RMK A01 T00641052  RH  043%=      5-min Rain = 0
KOD1 140445Z 10006KT 07/M05 A3034 RMK A01 T00651052  RH  043%=      5-min Rain = 0
KOD1 140446Z 10006KT 07/M05 A3034 RMK A01 T00651052  RH  043%=      5-min Rain = 0
KOD1 140447Z 10006KT 06/M05 A3034 RMK A01 T00641052  RH  043%=      5-min Rain = 0
KOD1 140448Z 10007KT 07/M05 A3034 RMK A01 T00651052  RH  043%=      5-min Rain = 0
KOD1 140449Z 10006KT 07/M05 A3034 RMK A01 T00661052  RH  043%=      5-min Rain = 0
KOD1 140450Z 10006KT 07/M05 A3034 RMK A01 T00661052  RH  043%=      5-min Rain = 0
KOD1 140451Z 10006KT 07/M05 A3034 RMK A01 T00651052  RH  043%=      5-min Rain = 0
KOD1 140452Z 10006KT 06/M05 A3034 RMK A01 T00641052  RH  043%=      5-min Rain = 0
KOD1 140453Z 11006KT 06/M05 A3034 RMK A01 T00631052  RH  044%=      5-min Rain = 0
KOD1 140454Z 10005KT 06/M05 A3034 RMK A01 T00621052  RH  044%=      5-min Rain = 0
KOD1 140455Z 11005KT 06/M05 A3034 RMK A01 T00611052  RH  044%=      5-min Rain = 0
KOD1 140456Z 11006KT 06/M05 A3034 RMK A01 T00611052  RH  044%=      5-min Rain = 0
KOD1 140457Z 11005KT 06/M05 A3034 RMK A01 T00611052  RH  044%=      5-min Rain = 0
KOD1 140458Z 11006KT 06/M05 A3034 RMK A01 T00611052  RH  044%=      5-min Rain = 0
KOD1 140459Z 11006KT 06/M05 A3034 RMK A01 T00611052  RH  044%=      5-min Rain = 0
KOD1 140500Z 11005KT 06/M05 A3034 RMK A01 T00611052  RH  044%=      5-min Rain = 0

Page generated in 0.0688 seconds.